Time,TemperatureF,DewpointF,PressureIn,WindDirection,WindDirectionDegrees,WindSpeedMPH,WindSpeedGustMPH,Humidity,HourlyPrecipIn,Conditions,Clouds,dailyrainin,SolarRadiationWatts/m^2,SoftwareType,DateUTC
2013-03-09 00:00:00,26.4,20.8,30.13,NNW,337,0.0,0.0,79,0.00,RA,,0.00,0.0,WeatherDisplay:10.37,2013-03-09 08:00:00,
2013-03-09 00:01:00,26.4,20.8,30.13,NNW,337,0.0,0.0,79,0.00,RA,,0.00,0.0,WeatherDisplay:10.37,2013-03-09 08:01:00,
2013-03-09 00:02:00,26.3,20.4,30.13,NNW,337,0.0,0.0,78,0.00,RA,,0.00,0.0,WeatherDisplay:10.37,2013-03-09 08:02:00,
2013-03-09 00:04:00,26.3,20.4,30.13,NNW,337,0.0,1.0,78,0.00,RA,,0.00,0.0,WeatherDisplay:10.37,2013-03-09 08:04:00,
2013-03-09 00:05:00,26.2,20.3,30.13,NNW,337,1.2,0.0,78,0.00,RA,,0.00,0.0,WeatherDisplay:10.37,2013-03-09 08:05:00,
2013-03-09 00:07:00,26.1,20.5,30.13,NNW,337,0.0,0.0,79,0.00,RA,,0.00,0.0,WeatherDisplay:10.37,2013-03-09 08:07:00,
2013-03-09 00:10:00,25.8,20.5,30.13,NNW,337,0.0,0.0,80,0.00,CLR,,0.00,0.0,WeatherDisplay:10.37,2013-03-09 08:10:00,
2013-03-09 00:12:00,25.6,20.3,30.13,NNW,337,0.0,0.0,80,0.00,CLR,,0.00,0.0,WeatherDisplay:10.37,2013-03-09 08:12:00,
2013-03-09 00:13:00,25.6,20.3,30.13,NNW,337,0.0,0.0,80,0.00,CLR,,0.00,0.0,WeatherDisplay:10.37,2013-03-09 08:13:00,
2013-03-09 00:15:00,25.5,20.5,30.13,NNW,337,0.0,0.0,81,0.00,CLR,,0.00,0.0,WeatherDisplay:10.37,2013-03-09 08:15:00,
2013-03-09 00:17:00,25.4,20.4,30.13,NNW,337,1.0,0.0,81,0.00,CLR,,0.00,0.0,WeatherDisplay:10.37,2013-03-09 08:17:00,
2013-03-09 00:18:00,25.4,20.4,30.13,NNW,337,1.2,1.2,81,0.00,CLR,,0.00,0.0,WeatherDisplay:10.37,2013-03-09 08:18:00,
2013-03-09 00:20:00,25.3,20.3,30.13,NNW,337,0.0,0.0,81,0.00,CLR,,0.00,0.0,WeatherDisplay:10.37,2013-03-09 08:20:00,
2013-03-09 00:21:00,25.3,20.3,30.13,NNW,337,0.0,0.0,81,0.00,CLR,,0.00,0.0,WeatherDisplay:10.37,2013-03-09 08:21:00,
2013-03-09 00:22:00,25.2,20.5,30.13,NNW,337,0.0,0.0,82,0.00,CLR,,0.00,0.0,WeatherDisplay:10.37,2013-03-09 08:22:00,
2013-03-09 00:23:00,25.2,20.5,30.13,NNW,337,0.0,0.0,82,0.00,CLR,,0.00,0.0,WeatherDisplay:10.37,2013-03-09 08:23:00,
2013-03-09 00:25:00,25.1,20.4,30.13,NNW,337,0.0,0.0,82,0.00,CLR,,0.00,0.0,WeatherDisplay:10.37,2013-03-09 08:25:00,
2013-03-09 00:26:00,25.1,20.4,30.13,NNW,337,0.0,0.0,82,0.00,CLR,,0.00,0.0,WeatherDisplay:10.37,2013-03-09 08:26:00,
2013-03-09 00:27:00,25.1,20.4,30.14,NNW,337,0.0,0.0,82,0.00,CLR,,0.00,0.0,WeatherDisplay:10.37,2013-03-09 08:27:00,
2013-03-09 00:28:00,25.1,20.4,30.14,NNW,337,0.0,0.0,82,0.00,CLR,,0.00,0.0,WeatherDisplay:10.37,2013-03-09 08:28:00,
2013-03-09 00:30:00,25.1,20.4,30.14,NNW,337,0.0,0.0,82,0.00,CLR,,0.00,0.0,WeatherDisplay:10.37,2013-03-09 08:30:00,
2013-03-09 00:31:00,25.1,20.4,30.14,NNW,337,1.2,0.0,82,0.00,CLR,,0.00,0.0,WeatherDisplay:10.37,2013-03-09 08:31:00,
2013-03-09 00:32:00,25.1,20.7,30.14,NNW,337,0.0,0.1,83,0.00,CLR,,0.00,0.0,WeatherDisplay:10.37,2013-03-09 08:32:00,
2013-03-09 00:33:00,25.1,20.7,30.14,NNW,338,1.2,1.2,83,0.00,CLR,,0.00,0.0,WeatherDisplay:10.37,2013-03-09 08:33:00,
2013-03-09 00:36:00,25.1,20.7,30.14,NNW,338,1.2,1.2,83,0.00,CLR,,0.00,0.0,WeatherDisplay:10.37,2013-03-09 08:36:00,
2013-03-09 00:37:00,25.1,20.7,30.14,NNW,337,1.2,0.0,83,0.00,CLR,,0.00,0.0,WeatherDisplay:10.37,2013-03-09 08:37:00,
2013-03-09 00:38:00,25.1,20.7,30.14,NNW,337,0.0,0.0,83,0.00,CLR,,0.00,0.0,WeatherDisplay:10.37,2013-03-09 08:38:00,
2013-03-09 00:41:00,25.1,20.7,30.14,NNW,337,0.0,0.0,83,0.00,CLR,,0.00,0.0,WeatherDisplay:10.37,2013-03-09 08:41:00,
2013-03-09 00:42:00,25.1,20.7,30.14,NNW,337,1.2,1.2,83,0.00,CLR,,0.00,0.0,WeatherDisplay:10.37,2013-03-09 08:42:00,
2013-03-09 00:44:00,25.1,20.7,30.14,NNW,338,1.2,1.2,83,0.00,CLR,,0.00,0.0,WeatherDisplay:10.37,2013-03-09 08:44:00,
2013-03-09 00:46:00,25.0,20.6,30.14,NNW,338,1.2,1.2,83,0.00,CLR,,0.00,0.0,WeatherDisplay:10.37,2013-03-09 08:46:00,
2013-03-09 00:48:00,25.0,20.6,30.15,NNW,338,2.3,2.3,83,0.00,CLR,,0.00,0.0,WeatherDisplay:10.37,2013-03-09 08:48:00,
2013-03-09 00:49:00,25.0,20.6,30.15,NNW,338,1.2,1.2,83,0.00,CLR,,0.00,0.0,WeatherDisplay:10.37,2013-03-09 08:49:00,
2013-03-09 00:51:00,25.0,20.6,30.15,NNW,338,1.2,0.0,83,0.00,CLR,,0.00,0.0,WeatherDisplay:10.37,2013-03-09 08:51:00,
2013-03-09 00:52:00,25.0,20.6,30.15,NNW,338,0.0,0.0,83,0.00,CLR,,0.00,0.0,WeatherDisplay:10.37,2013-03-09 08:52:00,
2013-03-09 00:53:00,24.9,20.5,30.15,NNW,338,1.2,0.0,83,0.00,CLR,,0.00,0.0,WeatherDisplay:10.37,2013-03-09 08:53:00,
2013-03-09 00:54:00,24.9,20.2,30.15,NNW,338,0.0,0.0,82,0.00,CLR,,0.00,0.0,WeatherDisplay:10.37,2013-03-09 08:54:00,
2013-03-09 00:56:00,24.8,20.1,30.15,NNW,338,1.2,0.0,82,0.00,CLR,,0.00,0.0,WeatherDisplay:10.37,2013-03-09 08:56:00,
2013-03-09 00:57:00,24.8,20.1,30.15,NNW,338,0.0,0.0,82,0.00,CLR,,0.00,0.0,WeatherDisplay:10.37,2013-03-09 08:57:00,
2013-03-09 00:58:00,24.7,20.0,30.15,NNW,338,1.2,0.0,82,0.00,CLR,,0.00,0.0,WeatherDisplay:10.37,2013-03-09 08:58:00,
2013-03-09 00:59:00,24.7,20.0,30.15,NNW,338,0.0,0.1,82,0.00,CLR,,0.00,0.0,WeatherDisplay:10.37,2013-03-09 08:59:00,
2013-03-09 01:01:00,24.6,19.9,30.15,NNW,338,0.0,0.0,82,0.00,CLR,,0.00,0.0,WeatherDisplay:10.37,2013-03-09 09:01:00,
2013-03-09 01:02:00,24.5,19.8,30.15,NNW,338,1.2,0.0,82,0.00,CLR,,0.00,0.0,WeatherDisplay:10.37,2013-03-09 09:02:00,
2013-03-09 01:03:00,24.5,19.8,30.15,NNW,338,1.2,1.2,82,0.00,CLR,,0.00,0.0,WeatherDisplay:10.37,2013-03-09 09:03:00,
2013-03-09 01:04:00,24.4,19.7,30.15,NNW,338,1.2,1.2,82,0.00,CLR,,0.00,0.0,WeatherDisplay:10.37,2013-03-09 09:04:00,
2013-03-09 01:06:00,24.3,19.6,30.15,NNW,338,1.2,1.2,82,0.00,CLR,,0.00,0.0,WeatherDisplay:10.37,2013-03-09 09:06:00,
2013-03-09 01:07:00,24.3,19.6,30.15,NNW,338,1.2,1.2,82,0.00,CLR,,0.00,0.0,WeatherDisplay:10.37,2013-03-09 09:07:00,
2013-03-09 01:08:00,24.2,19.5,30.15,NNW,338,1.2,0.0,82,0.00,CLR,,0.00,0.0,WeatherDisplay:10.37,2013-03-09 09:08:00,
2013-03-09 01:10:00,24.2,19.5,30.15,NNW,338,1.2,1.2,82,0.00,CLR,,0.00,0.0,WeatherDisplay:10.37,2013-03-09 09:10:00,
2013-03-09 01:11:00,24.1,19.4,30.15,NNW,338,1.2,0.0,82,0.00,CLR,,0.00,0.0,WeatherDisplay:10.37,2013-03-09 09:11:00,
2013-03-09 01:12:00,24.0,19.3,30.15,NNW,338,0.0,0.0,82,0.00,CLR,,0.00,0.0,WeatherDisplay:10.37,2013-03-09 09:12:00,
2013-03-09 01:13:00,24.0,19.3,30.15,NNW,338,0.0,0.0,82,0.00,CLR,,0.00,0.0,WeatherDisplay:10.37,2013-03-09 09:13:00,
2013-03-09 01:15:00,23.9,19.2,30.15,NNW,338,0.0,0.0,82,0.00,CLR,,0.00,0.0,WeatherDisplay:10.37,2013-03-09 09:15:00,
2013-03-09 01:16:00,23.9,19.2,30.15,NNW,338,0.0,0.0,82,0.00,CLR,,0.00,0.0,WeatherDisplay:10.37,2013-03-09 09:16:00,
2013-03-09 01:17:00,23.8,19.1,30.16,NNW,338,0.0,0.0,82,0.00,CLR,,0.00,0.0,WeatherDisplay:10.37,2013-03-09 09:17:00,
2013-03-09 01:19:00,23.8,19.4,30.16,NNW,338,0.0,0.0,83,0.00,CLR,,0.00,0.0,WeatherDisplay:10.37,2013-03-09 09:19:00,
2013-03-09 01:20:00,23.7,19.3,30.16,NNW,338,0.0,0.0,83,0.00,CLR,,0.00,0.0,WeatherDisplay:10.37,2013-03-09 09:20:00,
2013-03-09 01:21:00,23.6,19.2,30.16,NNW,338,0.0,0.0,83,0.00,CLR,,0.00,0.0,WeatherDisplay:10.37,2013-03-09 09:21:00,
2013-03-09 01:22:00,23.6,19.2,30.16,NNW,338,1.2,1.2,83,0.00,CLR,,0.00,0.0,WeatherDisplay:10.37,2013-03-09 09:22:00,
2013-03-09 01:24:00,23.5,19.1,30.16,NNW,338,1.2,0.0,83,0.00,CLR,,0.00,0.0,WeatherDisplay:10.37,2013-03-09 09:24:00,
2013-03-09 01:25:00,23.5,19.1,30.16,NNW,338,0.0,1.0,83,0.00,CLR,,0.00,0.0,WeatherDisplay:10.37,2013-03-09 09:25:00,
2013-03-09 01:26:00,23.5,19.1,30.16,NNW,338,0.0,0.0,83,0.00,CLR,,0.00,0.0,WeatherDisplay:10.37,2013-03-09 09:26:00,
2013-03-09 01:28:00,23.4,19.3,30.16,NNW,338,0.0,0.0,84,0.00,CLR,,0.00,0.0,WeatherDisplay:10.37,2013-03-09 09:28:00,
2013-03-09 01:30:00,23.4,19.3,30.16,NNW,338,0.0,0.0,84,0.00,CLR,,0.00,0.0,WeatherDisplay:10.37,2013-03-09 09:30:00,
2013-03-09 01:31:00,23.4,19.3,30.16,NNW,338,0.0,0.0,84,0.00,CLR,,0.00,0.0,WeatherDisplay:10.37,2013-03-09 09:31:00,
2013-03-09 01:33:00,23.4,19.3,30.16,NNW,338,0.0,0.0,84,0.00,CLR,,0.00,0.0,WeatherDisplay:10.37,2013-03-09 09:33:00,
2013-03-09 01:35:00,23.3,19.2,30.16,NNW,338,0.0,0.0,84,0.00,CLR,,0.00,0.0,WeatherDisplay:10.37,2013-03-09 09:35:00,
2013-03-09 01:36:00,23.3,19.2,30.16,NNW,338,0.0,0.0,84,0.00,CLR,,0.00,0.0,WeatherDisplay:10.37,2013-03-09 09:36:00,
2013-03-09 01:38:00,23.3,19.2,30.16,NNW,338,0.0,0.0,84,0.00,CLR,,0.00,0.0,WeatherDisplay:10.37,2013-03-09 09:38:00,
2013-03-09 01:40:00,23.2,19.1,30.16,NNW,338,0.0,0.0,84,0.00,CLR,,0.00,0.0,WeatherDisplay:10.37,2013-03-09 09:40:00,
2013-03-09 01:41:00,23.1,19.0,30.16,NNW,338,0.0,0.0,84,0.00,CLR,,0.00,0.0,WeatherDisplay:10.37,2013-03-09 09:41:00,
2013-03-09 01:42:00,23.1,19.0,30.16,NNW,338,1.2,0.0,84,0.00,CLR,,0.00,0.0,WeatherDisplay:10.37,2013-03-09 09:42:00,
2013-03-09 01:43:00,23.0,18.9,30.16,NNW,338,0.0,0.0,84,0.00,CLR,,0.00,0.0,WeatherDisplay:10.37,2013-03-09 09:43:00,
2013-03-09 01:45:00,23.0,18.9,30.17,NNW,338,1.2,1.2,84,0.00,CLR,,0.00,0.0,WeatherDisplay:10.37,2013-03-09 09:45:00,
2013-03-09 01:46:00,22.9,18.8,30.17,NNW,338,0.0,0.1,84,0.00,CLR,,0.00,0.0,WeatherDisplay:10.37,2013-03-09 09:46:00,
2013-03-09 01:48:00,22.8,18.7,30.16,NNW,338,0.0,0.0,84,0.00,CLR,,0.00,0.0,WeatherDisplay:10.37,2013-03-09 09:48:00,
2013-03-09 01:50:00,22.7,18.6,30.16,NNW,338,0.0,0.0,84,0.00,CLR,,0.00,0.0,WeatherDisplay:10.37,2013-03-09 09:50:00,
2013-03-09 01:51:00,22.6,18.5,30.17,NNW,338,0.0,0.0,84,0.00,CLR,,0.00,0.0,WeatherDisplay:10.37,2013-03-09 09:51:00,
2013-03-09 01:53:00,22.6,18.5,30.17,NNW,338,0.0,0.0,84,0.00,CLR,,0.00,0.0,WeatherDisplay:10.37,2013-03-09 09:53:00,
2013-03-09 01:55:00,22.5,18.7,30.17,NNW,338,0.0,0.0,85,0.00,CLR,,0.00,0.0,WeatherDisplay:10.37,2013-03-09 09:55:00,
2013-03-09 01:57:00,22.5,18.7,30.17,NNW,338,1.2,1.2,85,0.00,CLR,,0.00,0.0,WeatherDisplay:10.37,2013-03-09 09:57:00,
2013-03-09 01:58:00,22.5,18.7,30.17,NNW,338,1.2,1.2,85,0.00,CLR,,0.00,0.0,WeatherDisplay:10.37,2013-03-09 09:58:00,
2013-03-09 02:00:00,22.4,18.6,30.16,NNW,338,1.2,1.2,85,0.00,CLR,,0.00,0.0,WeatherDisplay:10.37,2013-03-09 10:00:00,
2013-03-09 02:02:00,22.4,18.6,30.16,NNW,338,0.0,0.0,85,0.00,CLR,,0.00,0.0,WeatherDisplay:10.37,2013-03-09 10:02:00,
2013-03-09 02:03:00,22.4,18.6,30.16,NNW,338,0.0,0.0,85,0.00,CLR,,0.00,0.0,WeatherDisplay:10.37,2013-03-09 10:03:00,
2013-03-09 02:05:00,22.5,18.7,30.16,NNE,20,0.0,0.0,85,0.00,CLR,,0.00,0.0,WeatherDisplay:10.37,2013-03-09 10:05:00,
2013-03-09 02:08:00,22.5,18.7,30.16,NNE,20,1.2,0.0,85,0.00,CLR,,0.00,0.0,WeatherDisplay:10.37,2013-03-09 10:08:00,
2013-03-09 02:11:00,22.5,18.7,30.16,NNE,20,1.2,1.2,85,0.00,CLR,,0.00,0.0,WeatherDisplay:10.37,2013-03-09 10:11:00,
2013-03-09 02:13:00,22.5,18.7,30.16,NNE,20,1.2,0.0,85,0.00,CLR,,0.00,0.0,WeatherDisplay:10.37,2013-03-09 10:13:00,
2013-03-09 02:14:00,22.5,18.7,30.17,NNE,20,0.0,0.0,85,0.00,CLR,,0.00,0.0,WeatherDisplay:10.37,2013-03-09 10:14:00,
2013-03-09 02:16:00,22.5,18.7,30.16,NNE,24,1.2,1.2,85,0.00,CLR,,0.00,0.0,WeatherDisplay:10.37,2013-03-09 10:16:00,
2013-03-09 02:18:00,22.6,18.8,30.16,NNE,24,1.2,1.2,85,0.00,CLR,,0.00,0.0,WeatherDisplay:10.37,2013-03-09 10:18:00,
2013-03-09 02:19:00,22.6,18.8,30.16,NNE,24,1.2,0.0,85,0.00,CLR,,0.00,0.0,WeatherDisplay:10.37,2013-03-09 10:19:00,
2013-03-09 02:22:00,22.5,18.7,30.17,NNE,24,1.2,0.0,85,0.00,CLR,,0.00,0.0,WeatherDisplay:10.37,2013-03-09 10:22:00,
2013-03-09 02:23:00,22.5,18.7,30.17,NNE,24,0.0,0.1,85,0.00,CLR,,0.00,0.0,WeatherDisplay:10.37,2013-03-09 10:23:00,
2013-03-09 02:24:00,22.6,18.8,30.17,NNE,24,1.2,1.2,85,0.00,CLR,,0.00,0.0,WeatherDisplay:10.37,2013-03-09 10:24:00,
2013-03-09 02:28:00,22.5,18.7,30.17,NNE,24,1.2,1.2,85,0.00,CLR,,0.00,0.0,WeatherDisplay:10.37,2013-03-09 10:28:00,
2013-03-09 02:29:00,22.5,18.7,30.17,NNE,24,1.2,1.2,85,0.00,CLR,,0.00,0.0,WeatherDisplay:10.37,2013-03-09 10:29:00,
2013-03-09 02:30:00,22.4,18.6,30.17,NNE,24,1.2,1.2,85,0.00,CLR,,0.00,0.0,WeatherDisplay:10.37,2013-03-09 10:30:00,
2013-03-09 02:33:00,22.4,18.6,30.17,NNE,24,1.2,1.2,85,0.00,CLR,,0.00,0.0,WeatherDisplay:10.37,2013-03-09 10:33:00,
2013-03-09 02:34:00,22.3,18.5,30.17,NNE,24,1.2,1.2,85,0.00,CLR,,0.00,0.0,WeatherDisplay:10.37,2013-03-09 10:34:00,
2013-03-09 02:35:00,22.3,18.2,30.17,NNE,24,1.2,1.2,84,0.00,CLR,,0.00,0.0,WeatherDisplay:10.37,2013-03-09 10:35:00,
2013-03-09 02:38:00,22.2,18.4,30.17,NNE,24,1.2,0.0,85,0.00,CLR,,0.00,0.0,WeatherDisplay:10.37,2013-03-09 10:38:00,
2013-03-09 02:39:00,22.1,18.3,30.17,NNE,24,0.0,0.0,85,0.00,CLR,,0.00,0.0,WeatherDisplay:10.37,2013-03-09 10:39:00,
2013-03-09 02:40:00,22.1,18.0,30.17,NNE,24,0.0,0.0,84,0.00,CLR,,0.00,0.0,WeatherDisplay:10.37,2013-03-09 10:40:00,
2013-03-09 02:43:00,22.0,18.2,30.17,NNE,24,0.0,0.0,85,0.00,CLR,,0.00,0.0,WeatherDisplay:10.37,2013-03-09 10:43:00,
2013-03-09 02:44:00,21.9,18.1,30.17,NNE,24,0.0,0.0,85,0.00,CLR,,0.00,0.0,WeatherDisplay:10.37,2013-03-09 10:44:00,
2013-03-09 02:45:00,21.8,18.0,30.17,NNE,24,1.2,0.0,85,0.00,CLR,,0.00,0.0,WeatherDisplay:10.37,2013-03-09 10:45:00,
2013-03-09 02:48:00,21.8,18.0,30.17,NNE,24,0.0,0.0,85,0.00,CLR,,0.00,0.0,WeatherDisplay:10.37,2013-03-09 10:48:00,
2013-03-09 02:49:00,21.7,17.9,30.17,NNE,24,1.2,0.0,85,0.00,CLR,,0.00,0.0,WeatherDisplay:10.37,2013-03-09 10:49:00,
2013-03-09 02:50:00,21.7,17.9,30.17,NNE,24,0.0,0.0,85,0.00,CLR,,0.00,0.0,WeatherDisplay:10.37,2013-03-09 10:50:00,
2013-03-09 02:53:00,21.6,17.8,30.17,NNE,24,1.2,1.2,85,0.00,CLR,,0.00,0.0,WeatherDisplay:10.37,2013-03-09 10:53:00,
2013-03-09 02:54:00,21.6,17.8,30.17,NNE,24,1.2,1.2,85,0.00,CLR,,0.00,0.0,WeatherDisplay:10.37,2013-03-09 10:54:00,
2013-03-09 02:55:00,21.5,17.7,30.17,NNE,24,1.2,1.2,85,0.00,CLR,,0.00,0.0,WeatherDisplay:10.37,2013-03-09 10:55:00,
2013-03-09 02:58:00,21.5,18.0,30.17,NNE,24,1.2,1.2,86,0.00,CLR,,0.00,0.0,WeatherDisplay:10.37,2013-03-09 10:58:00,
2013-03-09 03:00:00,21.5,18.0,30.17,NNE,24,1.2,1.2,86,0.00,CLR,,0.00,0.0,WeatherDisplay:10.37,2013-03-09 11:00:00,
2013-03-09 03:01:00,21.5,18.0,30.17,NNE,24,1.2,1.2,86,0.00,CLR,,0.00,0.0,WeatherDisplay:10.37,2013-03-09 11:01:00,
2013-03-09 03:04:00,21.5,18.0,30.17,NNE,24,1.2,1.2,86,0.00,CLR,,0.00,0.0,WeatherDisplay:10.37,2013-03-09 11:04:00,
2013-03-09 03:05:00,21.4,17.9,30.17,NNE,24,1.2,0.0,86,0.00,CLR,,0.00,0.0,WeatherDisplay:10.37,2013-03-09 11:05:00,
2013-03-09 03:06:00,21.4,17.9,30.17,NNE,24,1.2,1.2,86,0.00,CLR,,0.00,0.0,WeatherDisplay:10.37,2013-03-09 11:06:00,
2013-03-09 03:09:00,21.3,17.5,30.17,NNE,24,1.2,1.2,85,0.00,CLR,,0.00,0.0,WeatherDisplay:10.37,2013-03-09 11:09:00,
2013-03-09 03:10:00,21.3,17.8,30.17,NNE,24,1.2,0.0,86,0.00,CLR,,0.00,0.0,WeatherDisplay:10.37,2013-03-09 11:10:00,
2013-03-09 03:11:00,21.2,17.7,30.17,NNE,24,1.2,0.0,86,0.00,CLR,,0.00,0.0,WeatherDisplay:10.37,2013-03-09 11:11:00,
2013-03-09 03:14:00,21.0,17.2,30.17,NNE,24,1.2,0.0,85,0.00,CLR,,0.00,0.0,WeatherDisplay:10.37,2013-03-09 11:14:00,
2013-03-09 03:15:00,20.9,17.4,30.17,NNE,24,1.2,1.2,86,0.00,CLR,,0.00,0.0,WeatherDisplay:10.37,2013-03-09 11:15:00,
2013-03-09 03:16:00,20.9,17.4,30.17,NNE,24,1.2,1.2,86,0.00,CLR,,0.00,0.0,WeatherDisplay:10.37,2013-03-09 11:16:00,
2013-03-09 03:19:00,20.9,17.4,30.17,NE,38,2.0,2.0,86,0.00,CLR,,0.00,0.0,WeatherDisplay:10.37,2013-03-09 11:19:00,
2013-03-09 03:20:00,20.9,17.4,30.18,NE,41,2.3,2.3,86,0.00,CLR,,0.00,0.0,WeatherDisplay:10.37,2013-03-09 11:20:00,
2013-03-09 03:21:00,20.9,17.4,30.18,NE,46,2.3,2.3,86,0.00,CLR,,0.00,0.0,WeatherDisplay:10.37,2013-03-09 11:21:00,
2013-03-09 03:24:00,21.1,17.6,30.18,SE,128,1.2,1.2,86,0.00,CLR,,0.00,0.0,WeatherDisplay:10.37,2013-03-09 11:24:00,
2013-03-09 03:26:00,21.1,17.6,30.18,SE,128,0.0,0.0,86,0.00,CLR,,0.00,0.0,WeatherDisplay:10.37,2013-03-09 11:26:00,
2013-03-09 03:30:00,21.1,17.6,30.18,SE,142,1.2,1.2,86,0.00,CLR,,0.00,0.0,WeatherDisplay:10.37,2013-03-09 11:30:00,
2013-03-09 03:31:00,21.1,17.6,30.18,SE,142,1.2,1.2,86,0.00,CLR,,0.00,0.0,WeatherDisplay:10.37,2013-03-09 11:31:00,
2013-03-09 03:35:00,21.1,17.6,30.18,SE,142,0.0,0.1,86,0.00,CLR,,0.00,0.0,WeatherDisplay:10.37,2013-03-09 11:35:00,
2013-03-09 03:36:00,21.1,17.6,30.19,SE,142,1.2,1.2,86,0.00,CLR,,0.00,0.0,WeatherDisplay:10.37,2013-03-09 11:36:00,
2013-03-09 03:37:00,21.1,17.6,30.19,SE,142,0.0,0.0,86,0.00,CLR,,0.00,0.0,WeatherDisplay:10.37,2013-03-09 11:37:00,
2013-03-09 03:40:00,21.1,17.6,30.19,SE,142,0.0,0.0,86,0.00,CLR,,0.00,0.0,WeatherDisplay:10.37,2013-03-09 11:40:00,
2013-03-09 03:41:00,21.1,17.6,30.19,SE,142,0.0,0.0,86,0.00,CLR,,0.00,0.0,WeatherDisplay:10.37,2013-03-09 11:41:00,
2013-03-09 03:42:00,21.0,17.5,30.19,SE,142,0.0,0.0,86,0.00,CLR,,0.00,0.0,WeatherDisplay:10.37,2013-03-09 11:42:00,
2013-03-09 03:45:00,21.0,17.5,30.19,SE,142,0.0,0.0,86,0.00,CLR,,0.00,0.0,WeatherDisplay:10.37,2013-03-09 11:45:00,
2013-03-09 03:47:00,20.9,17.4,30.19,SE,142,0.0,0.0,86,0.00,CLR,,0.00,0.0,WeatherDisplay:10.37,2013-03-09 11:47:00,
2013-03-09 03:50:00,20.9,17.4,30.19,SE,142,1.2,1.2,86,0.00,CLR,,0.00,0.0,WeatherDisplay:10.37,2013-03-09 11:50:00,
2013-03-09 03:52:00,20.8,17.3,30.19,SE,142,1.2,1.2,86,0.00,CLR,,0.00,0.0,WeatherDisplay:10.37,2013-03-09 11:52:00,
2013-03-09 03:53:00,20.8,17.3,30.19,SE,142,1.2,1.2,86,0.00,CLR,,0.00,0.0,WeatherDisplay:10.37,2013-03-09 11:53:00,
2013-03-09 03:55:00,20.7,17.2,30.19,SE,142,1.2,1.2,86,0.00,CLR,,0.00,0.0,WeatherDisplay:10.37,2013-03-09 11:55:00,
2013-03-09 03:57:00,20.6,17.1,30.19,SE,142,2.3,2.3,86,0.00,CLR,,0.00,0.0,WeatherDisplay:10.37,2013-03-09 11:57:00,
2013-03-09 03:58:00,20.6,17.1,30.19,SE,142,2.3,2.3,86,0.00,CLR,,0.00,0.0,WeatherDisplay:10.37,2013-03-09 11:58:00,
2013-03-09 04:00:00,20.5,17.0,30.20,SE,142,1.2,1.2,86,0.00,CLR,,0.00,0.0,WeatherDisplay:10.37,2013-03-09 12:00:00,
2013-03-09 04:02:00,20.5,17.0,30.20,SE,142,2.3,2.3,86,0.00,CLR,,0.00,0.0,WeatherDisplay:10.37,2013-03-09 12:02:00,
2013-03-09 04:03:00,20.4,16.9,30.20,SE,142,1.2,1.2,86,0.00,CLR,,0.00,0.0,WeatherDisplay:10.37,2013-03-09 12:03:00,
2013-03-09 04:04:00,20.4,16.9,30.20,SE,142,1.2,0.0,86,0.00,CLR,,0.00,0.0,WeatherDisplay:10.37,2013-03-09 12:04:00,
2013-03-09 04:05:00,20.4,16.9,30.20,SE,142,1.2,0.0,86,0.00,CLR,,0.00,0.0,WeatherDisplay:10.37,2013-03-09 12:05:00,
2013-03-09 04:07:00,20.3,16.8,30.20,SE,142,0.0,0.0,86,0.00,CLR,,0.00,0.0,WeatherDisplay:10.37,2013-03-09 12:07:00,
2013-03-09 04:08:00,20.3,16.8,30.20,SE,142,1.0,1.0,86,0.00,CLR,,0.00,0.0,WeatherDisplay:10.37,2013-03-09 12:08:00,
2013-03-09 04:10:00,20.2,16.7,30.20,SE,142,2.3,2.3,86,0.00,CLR,,0.00,0.0,WeatherDisplay:10.37,2013-03-09 12:10:00,
2013-03-09 04:13:00,20.1,16.6,30.20,SE,142,1.2,1.2,86,0.00,CLR,,0.00,0.0,WeatherDisplay:10.37,2013-03-09 12:13:00,
2013-03-09 04:16:00,20.0,16.5,30.20,SE,142,1.2,1.2,86,0.00,CLR,,0.00,0.0,WeatherDisplay:10.37,2013-03-09 12:16:00,
2013-03-09 04:18:00,20.0,16.5,30.21,SE,141,2.3,2.3,86,0.00,CLR,,0.00,0.0,WeatherDisplay:10.37,2013-03-09 12:18:00,
2013-03-09 04:19:00,19.9,16.4,30.21,SE,141,2.3,2.3,86,0.00,CLR,,0.00,0.0,WeatherDisplay:10.37,2013-03-09 12:19:00,
2013-03-09 04:21:00,19.9,16.4,30.21,SE,141,2.3,2.3,86,0.00,CLR,,0.00,0.0,WeatherDisplay:10.37,2013-03-09 12:21:00,
2013-03-09 04:24:00,19.8,16.3,30.21,SE,141,2.3,2.3,86,0.00,CLR,,0.00,0.0,WeatherDisplay:10.37,2013-03-09 12:24:00,
2013-03-09 04:26:00,19.8,16.3,30.21,SE,141,2.3,2.3,86,0.00,CLR,,0.00,0.0,WeatherDisplay:10.37,2013-03-09 12:26:00,
2013-03-09 04:27:00,19.8,16.3,30.22,SE,141,1.2,1.2,86,0.00,CLR,,0.00,0.0,WeatherDisplay:10.37,2013-03-09 12:27:00,
2013-03-09 04:29:00,19.7,16.2,30.22,SE,141,1.2,1.2,86,0.00,CLR,,0.00,0.0,WeatherDisplay:10.37,2013-03-09 12:29:00,
2013-03-09 04:31:00,19.7,16.5,30.22,SE,141,2.3,2.3,87,0.00,CLR,,0.00,0.0,WeatherDisplay:10.37,2013-03-09 12:31:00,
2013-03-09 04:32:00,19.7,16.5,30.22,SE,141,1.2,1.2,87,0.00,CLR,,0.00,0.0,WeatherDisplay:10.37,2013-03-09 12:32:00,
2013-03-09 04:34:00,19.6,16.4,30.22,SE,141,0.0,0.2,87,0.00,CLR,,0.00,0.0,WeatherDisplay:10.37,2013-03-09 12:34:00,
2013-03-09 04:35:00,19.6,16.4,30.22,SE,141,1.2,1.2,87,0.00,CLR,,0.00,0.0,WeatherDisplay:10.37,2013-03-09 12:35:00,
2013-03-09 04:37:00,19.5,16.3,30.22,SE,141,1.2,1.2,87,0.00,CLR,,0.00,0.0,WeatherDisplay:10.37,2013-03-09 12:37:00,
2013-03-09 04:39:00,19.4,15.9,30.22,SE,141,1.2,1.2,86,0.00,CLR,,0.00,0.0,WeatherDisplay:10.37,2013-03-09 12:39:00,
2013-03-09 04:40:00,19.4,15.9,30.22,SE,141,2.3,2.3,86,0.00,CLR,,0.00,0.0,WeatherDisplay:10.37,2013-03-09 12:40:00,
2013-03-09 04:42:00,19.4,15.9,30.22,SE,141,1.2,1.2,86,0.00,CLR,,0.00,0.0,WeatherDisplay:10.37,2013-03-09 12:42:00,
2013-03-09 04:44:00,19.3,15.8,30.23,SE,141,2.3,2.3,86,0.00,CLR,,0.00,0.0,WeatherDisplay:10.37,2013-03-09 12:44:00,
2013-03-09 04:45:00,19.3,15.8,30.23,SE,141,2.3,2.3,86,0.00,CLR,,0.00,0.0,WeatherDisplay:10.37,2013-03-09 12:45:00,
2013-03-09 04:47:00,19.2,15.7,30.23,SE,141,2.3,2.3,86,0.00,CLR,,0.00,0.0,WeatherDisplay:10.37,2013-03-09 12:47:00,
2013-03-09 04:50:00,19.2,15.7,30.23,SE,141,2.3,2.3,86,0.00,CLR,,0.00,0.0,WeatherDisplay:10.37,2013-03-09 12:50:00,
2013-03-09 04:51:00,19.1,15.6,30.23,SE,141,2.3,2.3,86,0.00,CLR,,0.00,0.0,WeatherDisplay:10.37,2013-03-09 12:51:00,
2013-03-09 04:52:00,19.1,15.6,30.23,SE,141,3.5,3.5,86,0.00,CLR,,0.00,0.0,WeatherDisplay:10.37,2013-03-09 12:52:00,
2013-03-09 04:53:00,19.1,15.6,30.23,SE,141,2.3,2.3,86,0.00,CLR,,0.00,0.0,WeatherDisplay:10.37,2013-03-09 12:53:00,
2013-03-09 04:55:00,19.0,15.5,30.23,SE,140,2.3,2.3,86,0.00,CLR,,0.00,0.0,WeatherDisplay:10.37,2013-03-09 12:55:00,
2013-03-09 04:56:00,19.0,15.5,30.23,SE,140,2.3,0.0,86,0.00,CLR,,0.00,0.0,WeatherDisplay:10.37,2013-03-09 12:56:00,
2013-03-09 04:58:00,19.0,15.5,30.23,SE,140,1.2,1.2,86,0.00,CLR,,0.00,0.0,WeatherDisplay:10.37,2013-03-09 12:58:00,
2013-03-09 05:00:00,19.0,15.8,30.23,SE,141,1.2,1.2,87,0.00,CLR,,0.00,0.0,WeatherDisplay:10.37,2013-03-09 13:00:00,
2013-03-09 05:01:00,19.0,15.8,30.24,SE,140,2.3,2.3,87,0.00,CLR,,0.00,0.0,WeatherDisplay:10.37,2013-03-09 13:01:00,
2013-03-09 05:03:00,19.0,15.8,30.24,SE,140,1.2,1.2,87,0.00,CLR,,0.00,0.0,WeatherDisplay:10.37,2013-03-09 13:03:00,
2013-03-09 05:05:00,19.0,15.8,30.24,SE,141,0.0,0.5,87,0.00,CLR,,0.00,0.0,WeatherDisplay:10.37,2013-03-09 13:05:00,
2013-03-09 05:06:00,18.9,15.7,30.24,SE,141,1.2,1.2,87,0.00,CLR,,0.00,0.0,WeatherDisplay:10.37,2013-03-09 13:06:00,
2013-03-09 05:08:00,18.9,15.7,30.24,SE,141,2.0,2.0,87,0.00,CLR,,0.00,0.0,WeatherDisplay:10.37,2013-03-09 13:08:00,
2013-03-09 05:09:00,18.9,15.7,30.24,SE,141,3.5,3.5,87,0.00,CLR,,0.00,0.0,WeatherDisplay:10.37,2013-03-09 13:09:00,
2013-03-09 05:10:00,18.8,15.6,30.24,SE,141,3.5,3.5,87,0.00,CLR,,0.00,0.0,WeatherDisplay:10.37,2013-03-09 13:10:00,
2013-03-09 05:12:00,18.8,15.6,30.24,SE,140,2.3,2.3,87,0.00,CLR,,0.00,0.0,WeatherDisplay:10.37,2013-03-09 13:12:00,
2013-03-09 05:14:00,18.7,15.5,30.24,SE,140,1.2,1.2,87,0.00,CLR,,0.00,0.0,WeatherDisplay:10.37,2013-03-09 13:14:00,
2013-03-09 05:16:00,18.7,15.5,30.24,SE,140,2.3,2.3,87,0.00,CLR,,0.00,0.0,WeatherDisplay:10.37,2013-03-09 13:16:00,
2013-03-09 05:17:00,18.6,15.4,30.24,SE,140,1.2,1.2,87,0.00,CLR,,0.00,0.0,WeatherDisplay:10.37,2013-03-09 13:17:00,
2013-03-09 05:19:00,18.5,15.0,30.24,SE,140,1.2,1.2,86,0.00,CLR,,0.00,0.0,WeatherDisplay:10.37,2013-03-09 13:19:00,
2013-03-09 05:21:00,18.5,15.0,30.24,SE,140,1.0,1.0,86,0.00,CLR,,0.00,0.0,WeatherDisplay:10.37,2013-03-09 13:21:00,
2013-03-09 05:22:00,18.4,15.2,30.24,SE,140,2.0,2.0,87,0.00,CLR,,0.00,0.0,WeatherDisplay:10.37,2013-03-09 13:22:00,
2013-03-09 05:24:00,18.4,15.2,30.24,SE,140,3.5,3.5,87,0.00,CLR,,0.00,0.0,WeatherDisplay:10.37,2013-03-09 13:24:00,
2013-03-09 05:26:00,18.4,15.2,30.24,SE,140,1.2,1.2,87,0.00,CLR,,0.00,0.0,WeatherDisplay:10.37,2013-03-09 13:26:00,
2013-03-09 05:27:00,18.4,15.2,30.24,SE,140,1.2,1.2,87,0.00,CLR,,0.00,0.0,WeatherDisplay:10.37,2013-03-09 13:27:00,
2013-03-09 05:29:00,18.3,15.1,30.24,SE,140,2.3,2.3,87,0.00,CLR,,0.00,0.0,WeatherDisplay:10.37,2013-03-09 13:29:00,
2013-03-09 05:31:00,18.3,15.1,30.24,SE,140,3.5,3.5,87,0.00,CLR,,0.00,0.0,WeatherDisplay:10.37,2013-03-09 13:31:00,
2013-03-09 05:32:00,18.3,15.1,30.24,SE,140,1.2,1.2,87,0.00,CLR,,0.00,0.0,WeatherDisplay:10.37,2013-03-09 13:32:00,
2013-03-09 05:34:00,18.2,15.0,30.25,SE,140,1.2,1.2,87,0.00,CLR,,0.00,0.0,WeatherDisplay:10.37,2013-03-09 13:34:00,
2013-03-09 05:35:00,18.2,15.0,30.25,SE,140,2.3,2.3,87,0.00,CLR,,0.00,0.0,WeatherDisplay:10.37,2013-03-09 13:35:00,
2013-03-09 05:37:00,18.2,15.0,30.25,SE,140,2.3,2.3,87,0.00,CLR,,0.00,0.0,WeatherDisplay:10.37,2013-03-09 13:37:00,
2013-03-09 05:40:00,18.2,15.0,30.25,SE,140,0.0,0.0,87,0.00,CLR,,0.00,0.0,WeatherDisplay:10.37,2013-03-09 13:40:00,
2013-03-09 05:42:00,18.2,15.0,30.25,SE,140,1.2,1.2,87,0.00,CLR,,0.00,0.0,WeatherDisplay:10.37,2013-03-09 13:42:00,
2013-03-09 05:43:00,18.1,14.9,30.25,SE,140,2.3,2.3,87,0.00,CLR,,0.00,0.0,WeatherDisplay:10.37,2013-03-09 13:43:00,
2013-03-09 05:45:00,18.1,14.9,30.25,SE,140,2.3,2.3,87,0.00,CLR,,0.00,0.0,WeatherDisplay:10.37,2013-03-09 13:45:00,
2013-03-09 05:47:00,18.1,14.9,30.25,SE,140,2.3,2.3,87,0.00,CLR,,0.00,0.0,WeatherDisplay:10.37,2013-03-09 13:47:00,
2013-03-09 05:48:00,18.1,14.9,30.25,SE,140,1.2,1.2,87,0.00,CLR,,0.00,0.0,WeatherDisplay:10.37,2013-03-09 13:48:00,
2013-03-09 05:50:00,18.2,15.0,30.25,SE,140,1.2,1.2,87,0.00,CLR,,0.00,0.0,WeatherDisplay:10.37,2013-03-09 13:50:00,
2013-03-09 05:51:00,18.2,15.0,30.25,SE,140,3.5,3.5,87,0.00,CLR,,0.00,0.0,WeatherDisplay:10.37,2013-03-09 13:51:00,
2013-03-09 05:52:00,18.2,15.0,30.25,SE,140,0.0,0.0,87,0.00,CLR,,0.00,0.0,WeatherDisplay:10.37,2013-03-09 13:52:00,
2013-03-09 05:53:00,18.2,15.0,30.25,SE,140,0.0,0.0,87,0.00,CLR,,0.00,0.0,WeatherDisplay:10.37,2013-03-09 13:53:00,
2013-03-09 05:55:00,18.2,15.0,30.26,SE,140,1.2,1.2,87,0.00,CLR,,0.00,0.0,WeatherDisplay:10.37,2013-03-09 13:55:00,
2013-03-09 05:56:00,18.2,15.0,30.26,SE,140,2.3,2.3,87,0.00,CLR,,0.00,0.0,WeatherDisplay:10.37,2013-03-09 13:56:00,
2013-03-09 05:57:00,18.2,15.0,30.26,SE,140,2.3,2.3,87,0.00,CLR,,0.00,0.0,WeatherDisplay:10.37,2013-03-09 13:57:00,
2013-03-09 05:58:00,18.2,15.0,30.26,SE,140,2.3,0.0,87,0.00,CLR,,0.00,0.0,WeatherDisplay:10.37,2013-03-09 13:58:00,
2013-03-09 06:00:00,18.2,15.0,30.26,SE,140,0.0,2.0,87,0.00,CLR,,0.00,0.0,WeatherDisplay:10.37,2013-03-09 14:00:00,
2013-03-09 06:02:00,18.2,15.0,30.25,SE,140,1.2,1.2,87,0.00,CLR,,0.00,0.0,WeatherDisplay:10.37,2013-03-09 14:02:00,
2013-03-09 06:03:00,18.2,15.0,30.25,SE,140,1.2,0.0,87,0.00,CLR,,0.00,0.0,WeatherDisplay:10.37,2013-03-09 14:03:00,
2013-03-09 06:04:00,18.1,14.9,30.25,SE,140,1.0,1.0,87,0.00,CLR,,0.00,0.0,WeatherDisplay:10.37,2013-03-09 14:04:00,
2013-03-09 06:06:00,18.1,14.9,30.25,SE,140,1.2,1.2,87,0.00,CLR,,0.00,0.0,WeatherDisplay:10.37,2013-03-09 14:06:00,
2013-03-09 06:07:00,18.1,14.9,30.25,SE,140,1.2,0.0,87,0.00,CLR,,0.00,0.0,WeatherDisplay:10.37,2013-03-09 14:07:00,
2013-03-09 06:08:00,18.0,14.8,30.25,SE,140,1.2,1.2,87,0.00,CLR,,0.00,0.0,WeatherDisplay:10.37,2013-03-09 14:08:00,
2013-03-09 06:09:00,18.0,14.8,30.26,SE,140,1.2,1.2,87,0.00,CLR,,0.00,0.0,WeatherDisplay:10.37,2013-03-09 14:09:00,
2013-03-09 06:11:00,18.0,14.8,30.26,SE,140,0.0,0.0,87,0.00,CLR,,0.00,0.0,WeatherDisplay:10.37,2013-03-09 14:11:00,
2013-03-09 06:12:00,17.9,14.7,30.26,SE,140,0.0,0.0,87,0.00,CLR,,0.00,0.0,WeatherDisplay:10.37,2013-03-09 14:12:00,
2013-03-09 06:13:00,17.9,14.7,30.26,SE,140,1.2,1.2,87,0.00,CLR,,0.00,0.0,WeatherDisplay:10.37,2013-03-09 14:13:00,
2013-03-09 06:14:00,17.9,14.7,30.26,SE,140,2.3,2.3,87,0.00,CLR,,0.00,0.0,WeatherDisplay:10.37,2013-03-09 14:14:00,
2013-03-09 06:16:00,17.9,14.7,30.26,SE,140,2.3,2.3,87,0.00,CLR,,0.00,0.0,WeatherDisplay:10.37,2013-03-09 14:16:00,
2013-03-09 06:17:00,17.9,14.7,30.26,SE,140,1.2,1.2,87,0.00,CLR,,0.00,0.0,WeatherDisplay:10.37,2013-03-09 14:17:00,
2013-03-09 06:19:00,17.9,14.7,30.26,SE,140,0.0,0.0,87,0.00,CLR,,0.00,0.0,WeatherDisplay:10.37,2013-03-09 14:19:00,
2013-03-09 06:22:00,17.9,14.7,30.26,SE,140,1.2,0.0,87,0.00,CLR,,0.00,0.0,WeatherDisplay:10.37,2013-03-09 14:22:00,
2013-03-09 06:24:00,17.9,14.7,30.26,SE,140,1.2,1.2,87,0.00,CLR,,0.00,0.0,WeatherDisplay:10.37,2013-03-09 14:24:00,
2013-03-09 06:25:00,17.9,14.7,30.27,SE,140,1.2,1.2,87,0.00,CLR,,0.00,0.0,WeatherDisplay:10.37,2013-03-09 14:25:00,
2013-03-09 06:27:00,17.9,14.7,30.26,SE,140,1.2,0.0,87,0.00,CLR,,0.00,6.0,WeatherDisplay:10.37,2013-03-09 14:27:00,
2013-03-09 06:28:00,17.9,14.7,30.26,SE,140,0.0,0.1,87,0.00,CLR,,0.00,6.0,WeatherDisplay:10.37,2013-03-09 14:28:00,
2013-03-09 06:29:00,17.9,14.7,30.26,SE,140,0.0,0.0,87,0.00,CLR,,0.00,6.0,WeatherDisplay:10.37,2013-03-09 14:29:00,
2013-03-09 06:30:00,17.9,14.7,30.27,SE,140,0.0,0.0,87,0.00,CLR,,0.00,6.0,WeatherDisplay:10.37,2013-03-09 14:30:00,
2013-03-09 06:32:00,17.9,14.7,30.27,SE,140,1.2,1.2,87,0.00,CLR,,0.00,6.0,WeatherDisplay:10.37,2013-03-09 14:32:00,
2013-03-09 06:33:00,17.9,14.7,30.27,SE,140,1.2,1.2,87,0.00,CLR,,0.00,8.4,WeatherDisplay:10.37,2013-03-09 14:33:00,
2013-03-09 06:35:00,17.9,14.7,30.27,SE,140,1.2,1.2,87,0.00,CLR,,0.00,8.4,WeatherDisplay:10.37,2013-03-09 14:35:00,
2013-03-09 06:38:00,18.0,14.8,30.27,SE,140,1.2,1.2,87,0.00,FEW,,0.00,10.8,WeatherDisplay:10.37,2013-03-09 14:38:00,
2013-03-09 06:40:00,18.0,14.8,30.27,SE,140,1.2,0.0,87,0.00,SCT,,0.00,13.2,WeatherDisplay:10.37,2013-03-09 14:40:00,
2013-03-09 06:43:00,18.1,14.9,30.27,SE,140,1.2,1.2,87,0.00,SCT,,0.00,13.2,WeatherDisplay:10.37,2013-03-09 14:43:00,
2013-03-09 06:45:00,18.1,14.9,30.27,SE,140,1.2,1.2,87,0.00,SCT,,0.00,14.4,WeatherDisplay:10.37,2013-03-09 14:45:00,
2013-03-09 06:46:00,18.1,14.9,30.27,SE,140,1.2,1.2,87,0.00,BKN,,0.00,14.4,WeatherDisplay:10.37,2013-03-09 14:46:00,
2013-03-09 06:48:00,18.2,15.0,30.27,SE,140,0.0,0.2,87,0.00,BKN,,0.00,14.4,WeatherDisplay:10.37,2013-03-09 14:48:00,
2013-03-09 06:50:00,18.3,15.1,30.27,SE,140,1.2,1.2,87,0.00,BKN,,0.00,16.8,WeatherDisplay:10.37,2013-03-09 14:50:00,
2013-03-09 06:51:00,18.4,15.2,30.27,SE,140,1.2,1.2,87,0.00,BKN,,0.00,16.8,WeatherDisplay:10.37,2013-03-09 14:51:00,
2013-03-09 06:53:00,18.5,15.3,30.27,SE,140,1.2,1.2,87,0.00,BKN,,0.00,16.8,WeatherDisplay:10.37,2013-03-09 14:53:00,
2013-03-09 06:55:00,18.5,15.3,30.28,SE,140,0.0,1.0,87,0.00,BKN,,0.00,21.6,WeatherDisplay:10.37,2013-03-09 14:55:00,
2013-03-09 06:56:00,18.6,15.4,30.28,SE,140,2.0,2.0,87,0.00,BKN,,0.00,22.8,WeatherDisplay:10.37,2013-03-09 14:56:00,
2013-03-09 06:58:00,18.8,15.6,30.28,SE,140,1.2,1.2,87,0.00,SCT,,0.00,30.0,WeatherDisplay:10.37,2013-03-09 14:58:00,
2013-03-09 06:59:00,18.8,15.6,30.28,SE,140,1.2,1.2,87,0.00,SCT,,0.00,31.2,WeatherDisplay:10.37,2013-03-09 14:59:00,
2013-03-09 07:00:00,18.9,15.7,30.28,SE,140,1.2,1.2,87,0.00,SCT,,0.00,38.4,WeatherDisplay:10.37,2013-03-09 15:00:00,
2013-03-09 07:01:00,19.0,15.8,30.28,SE,140,1.2,1.2,87,0.00,SCT,,0.00,39.6,WeatherDisplay:10.37,2013-03-09 15:01:00,
2013-03-09 07:04:00,19.2,16.0,30.28,SE,140,2.3,2.3,87,0.00,SCT,,0.00,46.8,WeatherDisplay:10.37,2013-03-09 15:04:00,
2013-03-09 07:05:00,19.3,16.1,30.28,SE,140,3.0,3.0,87,0.00,SCT,,0.00,48.0,WeatherDisplay:10.37,2013-03-09 15:05:00,
2013-03-09 07:06:00,19.4,16.2,30.28,SE,140,3.5,3.5,87,0.00,FEW,,0.00,52.8,WeatherDisplay:10.37,2013-03-09 15:06:00,
2013-03-09 07:10:00,19.8,16.6,30.28,SE,140,1.2,1.2,87,0.00,FEW,,0.00,63.6,WeatherDisplay:10.37,2013-03-09 15:10:00,
2013-03-09 07:11:00,19.9,16.7,30.28,SE,140,2.3,2.3,87,0.00,FEW,,0.00,67.2,WeatherDisplay:10.37,2013-03-09 15:11:00,
2013-03-09 07:12:00,20.0,16.8,30.28,SE,140,2.3,2.3,87,0.00,FEW,,0.00,67.2,WeatherDisplay:10.37,2013-03-09 15:12:00,
2013-03-09 07:15:00,20.3,17.0,30.28,SE,140,3.5,3.5,87,0.00,FEW,,0.00,75.6,WeatherDisplay:10.37,2013-03-09 15:15:00,
2013-03-09 07:17:00,20.6,17.3,30.28,SE,140,1.2,1.2,87,0.00,CLR,,0.00,84.0,WeatherDisplay:10.37,2013-03-09 15:17:00,
2013-03-09 07:20:00,20.9,17.4,30.28,SE,140,2.3,2.3,86,0.00,CLR,,0.00,91.2,WeatherDisplay:10.37,2013-03-09 15:20:00,
2013-03-09 07:22:00,21.3,17.8,30.28,SE,140,3.5,3.5,86,0.00,CLR,,0.00,99.6,WeatherDisplay:10.37,2013-03-09 15:22:00,
2013-03-09 07:25:00,21.7,18.2,30.28,SE,140,3.5,3.5,86,0.00,CLR,,0.00,108.0,WeatherDisplay:10.37,2013-03-09 15:25:00,
2013-03-09 07:27:00,22.0,18.5,30.28,SE,140,1.2,1.2,86,0.00,CLR,,0.00,117.6,WeatherDisplay:10.37,2013-03-09 15:27:00,
2013-03-09 07:30:00,22.3,18.5,30.28,SE,140,3.5,3.5,85,0.00,CLR,,0.00,126.0,WeatherDisplay:10.37,2013-03-09 15:30:00,
2013-03-09 07:32:00,22.5,18.7,30.28,SE,140,1.2,1.2,85,0.00,CLR,,0.00,136.8,WeatherDisplay:10.37,2013-03-09 15:32:00,
2013-03-09 07:35:00,22.9,19.1,30.29,SE,140,3.5,3.5,85,0.00,CLR,,0.00,145.2,WeatherDisplay:10.37,2013-03-09 15:35:00,
2013-03-09 07:37:00,23.3,19.5,30.29,SE,140,3.5,3.5,85,0.00,CLR,,0.00,156.0,WeatherDisplay:10.37,2013-03-09 15:37:00,
2013-03-09 07:38:00,23.4,19.6,30.29,SE,140,3.5,3.5,85,0.00,CLR,,0.00,156.0,WeatherDisplay:10.37,2013-03-09 15:38:00,
2013-03-09 07:40:00,23.7,19.6,30.29,SE,140,3.5,3.5,84,0.00,CLR,,0.00,162.0,WeatherDisplay:10.37,2013-03-09 15:40:00,
2013-03-09 07:42:00,23.9,19.8,30.29,SE,140,3.5,3.5,84,0.00,CLR,,0.00,177.6,WeatherDisplay:10.37,2013-03-09 15:42:00,
2013-03-09 07:43:00,24.0,19.9,30.29,SE,140,3.5,3.5,84,0.00,CLR,,0.00,181.2,WeatherDisplay:10.37,2013-03-09 15:43:00,
2013-03-09 07:45:00,24.1,20.0,30.29,SE,138,3.5,3.5,84,0.00,CLR,,0.00,189.6,WeatherDisplay:10.37,2013-03-09 15:45:00,
2013-03-09 07:47:00,24.3,20.2,30.29,ESE,112,6.9,6.9,84,0.00,CLR,,0.00,198.0,WeatherDisplay:10.37,2013-03-09 15:47:00,
2013-03-09 07:48:00,24.4,20.3,30.29,ESE,115,3.5,3.5,84,0.00,CLR,,0.00,202.8,WeatherDisplay:10.37,2013-03-09 15:48:00,
2013-03-09 07:50:00,24.6,20.5,30.29,ESE,115,3.5,3.5,84,0.00,CLR,,0.00,214.8,WeatherDisplay:10.37,2013-03-09 15:50:00,
2013-03-09 07:51:00,24.7,20.3,30.29,ESE,112,4.0,4.0,83,0.00,CLR,,0.00,219.6,WeatherDisplay:10.37,2013-03-09 15:51:00,
2013-03-09 07:53:00,25.0,20.6,30.29,ESE,116,4.6,4.6,83,0.00,CLR,,0.00,225.6,WeatherDisplay:10.37,2013-03-09 15:53:00,
2013-03-09 07:54:00,25.1,20.7,30.29,ESE,114,3.5,3.5,83,0.00,CLR,,0.00,228.0,WeatherDisplay:10.37,2013-03-09 15:54:00,
2013-03-09 07:55:00,25.2,20.8,30.29,ESE,113,4.6,4.6,83,0.00,CLR,,0.00,231.6,WeatherDisplay:10.37,2013-03-09 15:55:00,
2013-03-09 07:56:00,25.3,20.9,30.29,ESE,112,3.5,3.5,83,0.00,CLR,,0.00,240.0,WeatherDisplay:10.37,2013-03-09 15:56:00,
2013-03-09 07:58:00,25.6,21.2,30.29,ESE,117,3.5,3.5,83,0.00,CLR,,0.00,247.2,WeatherDisplay:10.37,2013-03-09 15:58:00,
2013-03-09 07:59:00,25.8,21.3,30.29,ESE,117,3.5,3.5,83,0.00,CLR,,0.00,250.8,WeatherDisplay:10.37,2013-03-09 15:59:00,
2013-03-09 08:00:00,25.9,21.4,30.29,ESE,117,3.5,3.5,83,0.00,CLR,,0.00,250.8,WeatherDisplay:10.37,2013-03-09 16:00:00,
2013-03-09 08:01:00,26.1,21.4,30.29,ESE,117,3.5,3.5,82,0.00,CLR,,0.00,256.8,WeatherDisplay:10.37,2013-03-09 16:01:00,
2013-03-09 08:03:00,26.3,21.6,30.29,ESE,117,3.5,3.5,82,0.00,CLR,,0.00,264.0,WeatherDisplay:10.37,2013-03-09 16:03:00,
2013-03-09 08:04:00,26.5,21.7,30.29,ESE,117,3.5,3.5,82,0.00,CLR,,0.00,270.0,WeatherDisplay:10.37,2013-03-09 16:04:00,
2013-03-09 08:05:00,26.6,21.8,30.29,ESE,117,3.5,3.5,82,0.00,CLR,,0.00,270.0,WeatherDisplay:10.37,2013-03-09 16:05:00,
2013-03-09 08:06:00,26.8,22.0,30.29,ESE,117,3.5,3.5,82,0.00,CLR,,0.00,276.0,WeatherDisplay:10.37,2013-03-09 16:06:00,
2013-03-09 08:08:00,27.1,22.3,30.29,ESE,117,3.5,3.5,82,0.00,CLR,,0.00,283.2,WeatherDisplay:10.37,2013-03-09 16:08:00,
2013-03-09 08:09:00,27.4,22.3,30.29,ESE,117,3.5,3.5,81,0.00,CLR,,0.00,289.2,WeatherDisplay:10.37,2013-03-09 16:09:00,
2013-03-09 08:10:00,27.5,22.4,30.29,ESE,117,3.5,3.5,81,0.00,CLR,,0.00,289.2,WeatherDisplay:10.37,2013-03-09 16:10:00,
2013-03-09 08:11:00,27.7,22.6,30.29,ESE,117,3.5,3.5,81,0.00,CLR,,0.00,297.6,WeatherDisplay:10.37,2013-03-09 16:11:00,
2013-03-09 08:13:00,28.0,22.6,30.29,ESE,119,3.5,3.5,80,0.00,CLR,,0.00,306.0,WeatherDisplay:10.37,2013-03-09 16:13:00,
2013-03-09 08:14:00,28.2,22.8,30.30,ESE,117,3.5,3.5,80,0.00,CLR,,0.00,312.0,WeatherDisplay:10.37,2013-03-09 16:14:00,
2013-03-09 08:15:00,28.3,22.9,30.30,ESE,117,3.5,3.5,80,0.00,CLR,,0.00,312.0,WeatherDisplay:10.37,2013-03-09 16:15:00,
2013-03-09 08:17:00,28.5,23.1,30.30,ESE,117,2.3,2.3,80,0.00,CLR,,0.00,322.8,WeatherDisplay:10.37,2013-03-09 16:17:00,
2013-03-09 08:18:00,28.7,23.3,30.30,ESE,121,2.3,2.3,80,0.00,CLR,,0.00,344.4,WeatherDisplay:10.37,2013-03-09 16:18:00,
2013-03-09 08:20:00,29.0,23.3,30.30,ESE,121,2.3,2.3,79,0.00,CLR,,0.00,361.2,WeatherDisplay:10.37,2013-03-09 16:20:00,
2013-03-09 08:21:00,29.2,23.5,30.30,ESE,121,2.3,2.3,79,0.00,CLR,,0.00,370.8,WeatherDisplay:10.37,2013-03-09 16:21:00,
2013-03-09 08:22:00,29.5,23.5,30.30,ESE,121,1.2,1.2,78,0.00,CLR,,0.00,379.2,WeatherDisplay:10.37,2013-03-09 16:22:00,
2013-03-09 08:23:00,29.7,23.7,30.30,ESE,121,1.2,1.2,78,0.00,CLR,,0.00,384.0,WeatherDisplay:10.37,2013-03-09 16:23:00,
2013-03-09 08:25:00,30.0,23.7,30.30,ESE,121,1.2,0.0,77,0.00,CLR,,0.00,386.4,WeatherDisplay:10.37,2013-03-09 16:25:00,
2013-03-09 08:26:00,30.1,23.8,30.30,ESE,121,0.0,0.0,77,0.00,CLR,,0.00,384.0,WeatherDisplay:10.37,2013-03-09 16:26:00,
2013-03-09 08:27:00,30.2,23.5,30.30,ESE,121,1.0,1.0,76,0.00,CLR,,0.00,384.0,WeatherDisplay:10.37,2013-03-09 16:27:00,
2013-03-09 08:28:00,30.3,23.6,30.30,ESE,121,0.0,0.3,76,0.00,CLR,,0.00,387.6,WeatherDisplay:10.37,2013-03-09 16:28:00,
2013-03-09 08:30:00,30.5,23.8,30.30,ESE,121,0.0,0.0,76,0.00,CLR,,0.00,392.4,WeatherDisplay:10.37,2013-03-09 16:30:00,
2013-03-09 08:32:00,30.8,24.1,30.30,ESE,121,2.0,2.0,76,0.00,CLR,,0.00,396.0,WeatherDisplay:10.37,2013-03-09 16:32:00,
2013-03-09 08:34:00,31.2,24.2,30.30,ESE,121,3.5,3.5,75,0.00,CLR,,0.00,406.8,WeatherDisplay:10.37,2013-03-09 16:34:00,
2013-03-09 08:36:00,31.4,24.4,30.30,ESE,121,3.0,3.0,75,0.00,CLR,,0.00,409.2,WeatherDisplay:10.37,2013-03-09 16:36:00,
2013-03-09 08:37:00,31.7,24.4,30.30,ESE,120,3.5,3.5,74,0.00,CLR,,0.00,415.2,WeatherDisplay:10.37,2013-03-09 16:37:00,
2013-03-09 08:40:00,32.1,24.4,30.31,ESE,109,4.0,4.0,73,0.00,CLR,,0.00,423.6,WeatherDisplay:10.37,2013-03-09 16:40:00,
2013-03-09 08:41:00,32.3,24.6,30.31,ESE,111,3.5,3.5,73,0.00,CLR,,0.00,428.4,WeatherDisplay:10.37,2013-03-09 16:41:00,
2013-03-09 08:42:00,32.6,24.9,30.30,ESE,111,2.3,2.3,73,0.00,CLR,,0.00,432.0,WeatherDisplay:10.37,2013-03-09 16:42:00,
2013-03-09 08:43:00,32.6,24.9,30.30,ESE,111,2.3,2.3,73,0.00,CLR,,0.00,432.0,WeatherDisplay:10.37,2013-03-09 16:43:00,
2013-03-09 08:45:00,33.0,25.0,30.30,ESE,116,2.3,2.3,72,0.00,CLR,,0.00,440.4,WeatherDisplay:10.37,2013-03-09 16:45:00,
2013-03-09 08:46:00,33.2,24.8,30.30,ESE,116,2.3,2.3,71,0.00,CLR,,0.00,442.8,WeatherDisplay:10.37,2013-03-09 16:46:00,
2013-03-09 08:48:00,33.5,25.1,30.30,ESE,107,3.5,3.5,71,0.00,CLR,,0.00,448.8,WeatherDisplay:10.37,2013-03-09 16:48:00,
2013-03-09 08:50:00,33.8,25.0,30.30,ESE,109,3.5,3.5,70,0.00,CLR,,0.00,457.2,WeatherDisplay:10.37,2013-03-09 16:50:00,
2013-03-09 08:52:00,34.2,25.4,30.30,ESE,109,2.3,2.3,70,0.00,CLR,,0.00,462.0,WeatherDisplay:10.37,2013-03-09 16:52:00,
2013-03-09 08:53:00,34.3,25.5,30.30,ESE,107,3.5,3.5,70,0.00,CLR,,0.00,465.6,WeatherDisplay:10.37,2013-03-09 16:53:00,
2013-03-09 08:55:00,34.7,25.6,30.30,ESE,109,3.5,3.5,69,0.00,CLR,,0.00,472.8,WeatherDisplay:10.37,2013-03-09 16:55:00,
2013-03-09 08:57:00,35.1,25.6,30.30,ESE,109,1.2,0.0,68,0.00,CLR,,0.00,475.2,WeatherDisplay:10.37,2013-03-09 16:57:00,
2013-03-09 08:58:00,35.3,25.4,30.30,ESE,109,0.0,0.0,67,0.00,CLR,,0.00,483.6,WeatherDisplay:10.37,2013-03-09 16:58:00,
2013-03-09 09:00:00,35.7,25.8,30.30,ESE,104,3.5,3.5,67,0.00,CLR,,0.00,489.6,WeatherDisplay:10.37,2013-03-09 17:00:00,
2013-03-09 09:02:00,36.0,25.7,30.30,ESE,105,2.3,2.3,66,0.00,CLR,,0.00,493.2,WeatherDisplay:10.37,2013-03-09 17:02:00,
2013-03-09 09:03:00,36.3,26.0,30.30,ESE,107,3.5,3.5,66,0.00,CLR,,0.00,498.0,WeatherDisplay:10.37,2013-03-09 17:03:00,
2013-03-09 09:05:00,36.6,25.9,30.31,ESE,109,3.5,3.5,65,0.00,CLR,,0.00,501.6,WeatherDisplay:10.37,2013-03-09 17:05:00,
2013-03-09 09:07:00,37.0,25.9,30.31,ESE,109,3.5,3.5,64,0.00,CLR,,0.00,506.4,WeatherDisplay:10.37,2013-03-09 17:07:00,
2013-03-09 09:09:00,37.4,25.9,30.31,ESE,114,2.3,2.3,63,0.00,CLR,,0.00,512.4,WeatherDisplay:10.37,2013-03-09 17:09:00,
2013-03-09 09:10:00,37.5,26.0,30.31,ESE,114,2.3,2.3,63,0.00,CLR,,0.00,517.2,WeatherDisplay:10.37,2013-03-09 17:10:00,
2013-03-09 09:12:00,37.6,26.1,30.31,ESE,114,2.3,2.3,63,0.00,CLR,,0.00,523.2,WeatherDisplay:10.37,2013-03-09 17:12:00,
2013-03-09 09:14:00,37.8,25.9,30.31,ESE,114,0.0,0.0,62,0.00,CLR,,0.00,529.2,WeatherDisplay:10.37,2013-03-09 17:14:00,
2013-03-09 09:15:00,37.9,26.0,30.31,ESE,114,0.0,0.0,62,0.00,CLR,,0.00,534.0,WeatherDisplay:10.37,2013-03-09 17:15:00,
2013-03-09 09:18:00,38.2,26.3,30.31,ESE,114,2.3,2.3,62,0.00,CLR,,0.00,542.4,WeatherDisplay:10.37,2013-03-09 17:18:00,
2013-03-09 09:19:00,38.4,26.5,30.31,ESE,114,2.3,2.3,62,0.00,CLR,,0.00,542.4,WeatherDisplay:10.37,2013-03-09 17:19:00,
2013-03-09 09:20:00,38.4,26.5,30.31,ESE,114,2.3,2.3,62,0.00,CLR,,0.00,546.0,WeatherDisplay:10.37,2013-03-09 17:20:00,
2013-03-09 09:21:00,38.6,26.3,30.31,ESE,114,1.2,1.2,61,0.00,CLR,,0.00,550.8,WeatherDisplay:10.37,2013-03-09 17:21:00,
2013-03-09 09:23:00,38.9,26.6,30.31,ESE,114,2.3,2.3,61,0.00,CLR,,0.00,556.8,WeatherDisplay:10.37,2013-03-09 17:23:00,
2013-03-09 09:24:00,39.1,26.8,30.31,ESE,114,2.3,2.3,61,0.00,CLR,,0.00,559.2,WeatherDisplay:10.37,2013-03-09 17:24:00,
2013-03-09 09:25:00,39.2,26.9,30.31,ESE,114,2.3,0.0,61,0.00,CLR,,0.00,562.8,WeatherDisplay:10.37,2013-03-09 17:25:00,
2013-03-09 09:26:00,39.4,26.7,30.31,ESE,105,2.3,2.3,60,0.00,CLR,,0.00,565.2,WeatherDisplay:10.37,2013-03-09 17:26:00,
2013-03-09 09:28:00,39.9,26.3,30.31,ESE,105,2.3,2.3,58,0.00,CLR,,0.00,570.0,WeatherDisplay:10.37,2013-03-09 17:28:00,
2013-03-09 09:29:00,40.2,26.2,30.31,ESE,105,1.2,0.0,57,0.00,CLR,,0.00,573.6,WeatherDisplay:10.37,2013-03-09 17:29:00,
2013-03-09 09:30:00,40.3,26.2,30.31,ESE,109,0.0,4.0,57,0.00,CLR,,0.00,578.4,WeatherDisplay:10.37,2013-03-09 17:30:00,
2013-03-09 09:31:00,40.5,26.4,30.31,ESE,111,3.5,3.5,57,0.00,CLR,,0.00,579.6,WeatherDisplay:10.37,2013-03-09 17:31:00,
2013-03-09 09:33:00,40.9,26.8,30.31,ESE,111,1.2,1.2,57,0.00,CLR,,0.00,584.4,WeatherDisplay:10.37,2013-03-09 17:33:00,
2013-03-09 09:35:00,41.3,26.3,30.31,ESE,111,3.0,3.0,55,0.00,CLR,,0.00,590.4,WeatherDisplay:10.37,2013-03-09 17:35:00,
2013-03-09 09:36:00,41.5,26.5,30.31,ESE,111,3.5,3.5,55,0.00,CLR,,0.00,595.2,WeatherDisplay:10.37,2013-03-09 17:36:00,
2013-03-09 09:38:00,41.7,26.7,30.31,ESE,111,1.2,1.2,55,0.00,CLR,,0.00,598.8,WeatherDisplay:10.37,2013-03-09 17:38:00,
2013-03-09 09:40:00,42.0,26.1,30.31,ESE,111,1.2,1.2,53,0.00,CLR,,0.00,603.6,WeatherDisplay:10.37,2013-03-09 17:40:00,
2013-03-09 09:41:00,42.2,26.3,30.31,ESE,111,2.3,2.3,53,0.00,CLR,,0.00,607.2,WeatherDisplay:10.37,2013-03-09 17:41:00,
2013-03-09 09:43:00,42.4,26.0,30.31,ESE,111,1.2,1.2,52,0.00,CLR,,0.00,614.4,WeatherDisplay:10.37,2013-03-09 17:43:00,
2013-03-09 09:45:00,42.6,26.2,30.31,ESE,111,1.2,1.2,52,0.00,CLR,,0.00,620.4,WeatherDisplay:10.37,2013-03-09 17:45:00,
2013-03-09 09:46:00,42.6,26.2,30.31,ESE,111,1.2,1.2,52,0.00,CLR,,0.00,624.0,WeatherDisplay:10.37,2013-03-09 17:46:00,
2013-03-09 09:48:00,42.8,25.4,30.31,ESE,111,1.2,1.2,50,0.00,CLR,,0.00,631.2,WeatherDisplay:10.37,2013-03-09 17:48:00,
2013-03-09 09:50:00,42.9,25.0,30.31,ESE,111,1.2,1.2,49,0.00,CLR,,0.00,634.8,WeatherDisplay:10.37,2013-03-09 17:50:00,
2013-03-09 09:51:00,43.0,25.1,30.31,ESE,110,3.0,3.0,49,0.00,CLR,,0.00,634.8,WeatherDisplay:10.37,2013-03-09 17:51:00,
2013-03-09 09:53:00,43.1,25.2,30.31,ESE,110,2.3,2.3,49,0.00,CLR,,0.00,634.8,WeatherDisplay:10.37,2013-03-09 17:53:00,
2013-03-09 09:56:00,43.5,25.1,30.31,SE,129,3.5,3.5,48,0.00,CLR,,0.00,634.8,WeatherDisplay:10.37,2013-03-09 17:56:00,
2013-03-09 09:57:00,43.6,25.2,30.31,SE,129,3.5,3.5,48,0.00,CLR,,0.00,632.4,WeatherDisplay:10.37,2013-03-09 17:57:00,
2013-03-09 09:58:00,43.8,23.8,30.32,SE,132,3.5,3.5,45,0.00,CLR,,0.00,639.6,WeatherDisplay:10.37,2013-03-09 17:58:00,
2013-03-09 10:01:00,44.3,24.3,30.31,SSE,155,5.0,5.0,45,0.00,CLR,,0.00,651.6,WeatherDisplay:10.37,2013-03-09 18:01:00,
2013-03-09 10:02:00,44.3,23.7,30.32,SW,225,6.9,6.9,44,0.00,CLR,,0.00,656.4,WeatherDisplay:10.37,2013-03-09 18:02:00,
2013-03-09 10:04:00,44.4,23.3,30.32,SW,223,3.5,3.5,43,0.00,CLR,,0.00,657.6,WeatherDisplay:10.37,2013-03-09 18:04:00,
2013-03-09 10:06:00,44.7,23.5,30.32,South,180,3.5,3.5,43,0.00,CLR,,0.00,662.4,WeatherDisplay:10.37,2013-03-09 18:06:00,
2013-03-09 10:08:00,45.1,23.3,30.33,SSE,164,2.3,2.3,42,0.00,CLR,,0.00,673.2,WeatherDisplay:10.37,2013-03-09 18:08:00,
2013-03-09 10:09:00,45.1,23.3,30.32,SSE,164,2.3,2.3,42,0.00,CLR,,0.00,670.8,WeatherDisplay:10.37,2013-03-09 18:09:00,
2013-03-09 10:11:00,45.1,22.8,30.32,SSE,164,1.2,0.0,41,0.00,CLR,,0.00,679.2,WeatherDisplay:10.37,2013-03-09 18:11:00,
2013-03-09 10:13:00,45.2,23.4,30.32,SSW,192,4.0,4.0,42,0.00,CLR,,0.00,685.2,WeatherDisplay:10.37,2013-03-09 18:13:00,
2013-03-09 10:14:00,45.5,22.5,30.32,SSW,192,4.0,4.0,40,0.00,CLR,,0.00,690.0,WeatherDisplay:10.37,2013-03-09 18:14:00,
2013-03-09 10:16:00,45.7,22.1,30.32,South,188,3.5,3.5,39,0.00,CLR,,0.00,698.4,WeatherDisplay:10.37,2013-03-09 18:16:00,
2013-03-09 10:18:00,46.0,21.8,30.32,SSW,203,3.5,3.5,38,0.00,CLR,,0.00,702.0,WeatherDisplay:10.37,2013-03-09 18:18:00,
2013-03-09 10:19:00,45.9,21.7,30.32,SSW,204,5.8,5.8,38,0.00,CLR,,0.00,700.8,WeatherDisplay:10.37,2013-03-09 18:19:00,
2013-03-09 10:22:00,45.8,21.6,30.32,SSW,204,3.5,3.5,38,0.00,CLR,,0.00,706.8,WeatherDisplay:10.37,2013-03-09 18:22:00,
2013-03-09 10:23:00,45.8,21.6,30.32,SSW,204,3.5,3.5,38,0.00,CLR,,0.00,704.4,WeatherDisplay:10.37,2013-03-09 18:23:00,
2013-03-09 10:24:00,46.1,22.5,30.32,South,188,1.2,1.2,39,0.00,CLR,,0.00,704.4,WeatherDisplay:10.37,2013-03-09 18:24:00,
2013-03-09 10:25:00,46.4,22.8,30.32,South,188,3.5,3.5,39,0.00,CLR,,0.00,710.4,WeatherDisplay:10.37,2013-03-09 18:25:00,
2013-03-09 10:27:00,46.2,21.3,30.32,South,190,2.3,2.3,37,0.00,CLR,,0.00,712.8,WeatherDisplay:10.37,2013-03-09 18:27:00,
2013-03-09 10:28:00,45.8,20.3,30.32,SSW,200,3.5,3.5,36,0.00,CLR,,0.00,715.2,WeatherDisplay:10.37,2013-03-09 18:28:00,
2013-03-09 10:29:00,45.9,20.4,30.32,SSW,204,3.5,3.5,36,0.00,CLR,,0.00,717.6,WeatherDisplay:10.37,2013-03-09 18:29:00,
2013-03-09 10:30:00,46.1,19.9,30.32,SSW,204,3.5,3.5,35,0.00,CLR,,0.00,718.8,WeatherDisplay:10.37,2013-03-09 18:30:00,
2013-03-09 10:32:00,46.6,20.4,30.33,West,265,6.9,6.9,35,0.00,CLR,,0.00,723.6,WeatherDisplay:10.37,2013-03-09 18:32:00,
2013-03-09 10:33:00,47.0,20.7,30.33,WSW,244,3.5,3.5,35,0.00,CLR,,0.00,723.6,WeatherDisplay:10.37,2013-03-09 18:33:00,
2013-03-09 10:34:00,47.2,20.9,30.33,West,260,3.5,3.5,35,0.00,CLR,,0.00,727.2,WeatherDisplay:10.37,2013-03-09 18:34:00,
2013-03-09 10:35:00,47.3,21.0,30.33,WSW,244,3.5,3.5,35,0.00,CLR,,0.00,729.6,WeatherDisplay:10.37,2013-03-09 18:35:00,
2013-03-09 10:37:00,47.1,20.1,30.33,NW,306,6.9,6.9,34,0.00,CLR,,0.00,738.0,WeatherDisplay:10.37,2013-03-09 18:37:00,
2013-03-09 10:38:00,47.0,20.7,30.33,NNW,334,3.5,3.5,35,0.00,CLR,,0.00,734.4,WeatherDisplay:10.37,2013-03-09 18:38:00,
2013-03-09 10:40:00,47.0,20.7,30.32,NNE,27,3.5,3.5,35,0.00,CLR,,0.00,732.0,WeatherDisplay:10.37,2013-03-09 18:40:00,
2013-03-09 10:43:00,47.2,20.2,30.32,WNW,295,2.3,2.3,34,0.00,CLR,,0.00,704.4,WeatherDisplay:10.37,2013-03-09 18:43:00,
2013-03-09 10:44:00,47.4,20.4,30.32,WNW,294,2.3,2.3,34,0.00,CLR,,0.00,702.0,WeatherDisplay:10.37,2013-03-09 18:44:00,
2013-03-09 10:45:00,47.6,20.6,30.32,WNW,288,4.0,4.0,34,0.00,CLR,,0.00,751.2,WeatherDisplay:10.37,2013-03-09 18:45:00,
2013-03-09 10:46:00,47.7,20.7,30.32,WNW,296,3.5,3.5,34,0.00,CLR,,0.00,762.0,WeatherDisplay:10.37,2013-03-09 18:46:00,
2013-03-09 10:48:00,48.0,20.2,30.32,West,278,6.9,6.9,33,0.00,CLR,,0.00,759.6,WeatherDisplay:10.37,2013-03-09 18:48:00,
2013-03-09 10:49:00,48.2,20.4,30.32,WNW,284,6.9,6.9,33,0.00,CLR,,0.00,762.0,WeatherDisplay:10.37,2013-03-09 18:49:00,
2013-03-09 10:50:00,48.1,19.6,30.32,WNW,294,8.1,8.1,32,0.00,CLR,,0.00,759.6,WeatherDisplay:10.37,2013-03-09 18:50:00,
2013-03-09 10:51:00,47.9,20.1,30.32,WNW,296,8.1,8.1,33,0.00,CLR,,0.00,763.2,WeatherDisplay:10.37,2013-03-09 18:51:00,
2013-03-09 10:53:00,48.0,20.2,30.32,WNW,298,4.0,4.0,33,0.00,CLR,,0.00,768.0,WeatherDisplay:10.37,2013-03-09 18:53:00,
2013-03-09 10:54:00,48.0,20.2,30.32,WNW,300,3.5,3.5,33,0.00,CLR,,0.00,774.0,WeatherDisplay:10.37,2013-03-09 18:54:00,
2013-03-09 10:55:00,48.0,20.2,30.32,WNW,300,3.5,3.5,33,0.00,CLR,,0.00,771.6,WeatherDisplay:10.37,2013-03-09 18:55:00,
2013-03-09 10:56:00,48.1,20.3,30.32,WNW,300,1.2,1.2,33,0.00,CLR,,0.00,774.0,WeatherDisplay:10.37,2013-03-09 18:56:00,
2013-03-09 10:59:00,48.8,20.2,30.32,WNW,300,1.2,1.2,32,0.00,CLR,,0.00,776.4,WeatherDisplay:10.37,2013-03-09 18:59:00,
2013-03-09 11:00:00,49.1,19.7,30.32,WNW,290,2.3,2.3,31,0.00,CLR,,0.00,776.4,WeatherDisplay:10.37,2013-03-09 19:00:00,
2013-03-09 11:01:00,49.2,19.0,30.32,WNW,288,3.5,3.5,30,0.00,CLR,,0.00,787.2,WeatherDisplay:10.37,2013-03-09 19:01:00,
2013-03-09 11:04:00,49.1,18.2,30.32,WNW,288,3.5,3.5,29,0.00,CLR,,0.00,784.8,WeatherDisplay:10.37,2013-03-09 19:04:00,
2013-03-09 11:05:00,49.1,18.2,30.32,WNW,289,0.0,3.0,29,0.00,CLR,,0.00,787.2,WeatherDisplay:10.37,2013-03-09 19:05:00,
2013-03-09 11:06:00,49.2,18.3,30.32,WNW,284,2.3,2.3,29,0.00,CLR,,0.00,788.4,WeatherDisplay:10.37,2013-03-09 19:06:00,
2013-03-09 11:09:00,49.4,17.6,30.31,SSW,210,1.2,0.0,28,0.00,CLR,,0.00,778.8,WeatherDisplay:10.37,2013-03-09 19:09:00,
2013-03-09 11:10:00,49.7,17.0,30.31,West,262,1.0,5.0,27,0.00,CLR,,0.00,771.6,WeatherDisplay:10.37,2013-03-09 19:10:00,
2013-03-09 11:11:00,49.8,17.1,30.31,West,279,4.6,4.6,27,0.00,CLR,,0.00,774.0,WeatherDisplay:10.37,2013-03-09 19:11:00,
2013-03-09 11:14:00,50.1,17.4,30.32,West,273,8.1,8.1,27,0.00,CLR,,0.00,782.4,WeatherDisplay:10.37,2013-03-09 19:14:00,
2013-03-09 11:16:00,49.8,16.2,30.31,WNW,301,3.5,3.5,26,0.00,CLR,,0.00,780.0,WeatherDisplay:10.37,2013-03-09 19:16:00,
2013-03-09 11:19:00,49.9,16.3,30.31,NW,308,8.1,8.1,26,0.00,CLR,,0.00,787.2,WeatherDisplay:10.37,2013-03-09 19:19:00,
2013-03-09 11:21:00,49.3,15.8,30.31,NNW,332,5.8,5.8,26,0.00,CLR,,0.00,790.8,WeatherDisplay:10.37,2013-03-09 19:21:00,
2013-03-09 11:24:00,49.2,16.6,30.31,West,279,3.0,3.0,27,0.00,CLR,,0.00,793.2,WeatherDisplay:10.37,2013-03-09 19:24:00,
2013-03-09 11:26:00,49.8,17.1,30.31,WNW,292,4.6,4.6,27,0.00,CLR,,0.00,795.6,WeatherDisplay:10.37,2013-03-09 19:26:00,
2013-03-09 11:29:00,50.1,17.4,30.31,West,279,5.8,5.8,27,0.00,CLR,,0.00,804.0,WeatherDisplay:10.37,2013-03-09 19:29:00,
2013-03-09 11:31:00,50.1,16.5,30.32,West,278,3.0,3.0,26,0.00,CLR,,0.00,805.2,WeatherDisplay:10.37,2013-03-09 19:31:00,
2013-03-09 11:35:00,49.7,15.2,30.32,WNW,289,5.8,5.8,25,0.00,CLR,,0.00,816.0,WeatherDisplay:10.37,2013-03-09 19:35:00,
2013-03-09 11:36:00,50.0,15.5,30.32,WNW,300,5.8,5.8,25,0.00,CLR,,0.00,812.4,WeatherDisplay:10.37,2013-03-09 19:36:00,
2013-03-09 11:40:00,50.3,14.8,30.32,NE,43,4.6,4.6,24,0.00,CLR,,0.00,810.0,WeatherDisplay:10.37,2013-03-09 19:40:00,
2013-03-09 11:41:00,50.4,15.8,30.32,NNW,337,4.6,4.6,25,0.00,CLR,,0.00,807.6,WeatherDisplay:10.37,2013-03-09 19:41:00,
2013-03-09 11:42:00,50.5,15.9,30.32,North,355,4.6,4.6,25,0.00,CLR,,0.00,807.6,WeatherDisplay:10.37,2013-03-09 19:42:00,
2013-03-09 11:45:00,51.2,14.6,30.32,NNW,329,3.5,3.5,23,0.00,CLR,,0.00,812.4,WeatherDisplay:10.37,2013-03-09 19:45:00,
2013-03-09 11:46:00,51.5,14.9,30.33,WNW,296,4.0,4.0,23,0.00,CLR,,0.00,823.2,WeatherDisplay:10.37,2013-03-09 19:46:00,
2013-03-09 11:47:00,51.5,14.9,30.33,WNW,291,6.0,6.0,23,0.00,CLR,,0.00,820.8,WeatherDisplay:10.37,2013-03-09 19:47:00,
2013-03-09 11:50:00,51.5,13.8,30.32,NNW,328,1.0,7.0,22,0.00,CLR,,0.00,820.8,WeatherDisplay:10.37,2013-03-09 19:50:00,
2013-03-09 11:52:00,51.6,15.0,30.33,North,350,1.2,0.0,23,0.00,CLR,,0.00,796.8,WeatherDisplay:10.37,2013-03-09 19:52:00,
2013-03-09 11:55:00,51.5,14.9,30.33,NNW,338,3.5,3.5,23,0.00,CLR,,0.00,823.2,WeatherDisplay:10.37,2013-03-09 19:55:00,
2013-03-09 11:56:00,51.3,14.7,30.33,NNW,338,3.5,3.5,23,0.00,CLR,,0.00,823.2,WeatherDisplay:10.37,2013-03-09 19:56:00,
2013-03-09 11:57:00,51.0,14.4,30.33,NNW,340,3.5,3.5,23,0.00,CLR,,0.00,823.2,WeatherDisplay:10.37,2013-03-09 19:57:00,
2013-03-09 12:00:00,51.3,14.7,30.33,North,11,2.3,2.3,23,0.00,CLR,,0.00,826.8,WeatherDisplay:10.37,2013-03-09 20:00:00,
2013-03-09 12:01:00,52.0,16.3,30.33,NE,49,2.3,2.3,24,0.00,CLR,,0.00,818.4,WeatherDisplay:10.37,2013-03-09 20:01:00,
2013-03-09 12:02:00,52.3,16.5,30.33,NE,46,2.3,2.3,24,0.00,CLR,,0.00,820.8,WeatherDisplay:10.37,2013-03-09 20:02:00,
2013-03-09 12:03:00,52.9,16.1,30.33,North,11,2.3,2.3,23,0.00,CLR,,0.00,818.4,WeatherDisplay:10.37,2013-03-09 20:03:00,
2013-03-09 12:06:00,52.2,15.5,30.33,NW,315,3.5,3.5,23,0.00,CLR,,0.00,807.6,WeatherDisplay:10.37,2013-03-09 20:06:00,
2013-03-09 12:07:00,51.8,15.1,30.33,North,5,3.5,3.5,23,0.00,CLR,,0.00,824.4,WeatherDisplay:10.37,2013-03-09 20:07:00,
2013-03-09 12:08:00,52.1,16.4,30.33,NW,315,3.5,3.5,24,0.00,CLR,,0.00,826.8,WeatherDisplay:10.37,2013-03-09 20:08:00,
2013-03-09 12:11:00,52.1,16.4,30.33,NW,325,5.0,5.0,24,0.00,CLR,,0.00,835.2,WeatherDisplay:10.37,2013-03-09 20:11:00,
2013-03-09 12:12:00,52.1,15.4,30.33,NW,314,4.6,4.6,23,0.00,CLR,,0.00,832.8,WeatherDisplay:10.37,2013-03-09 20:12:00,
2013-03-09 12:13:00,52.1,15.4,30.33,North,355,5.8,5.8,23,0.00,CLR,,0.00,832.8,WeatherDisplay:10.37,2013-03-09 20:13:00,
2013-03-09 12:16:00,53.1,14.1,30.33,West,259,6.9,6.9,21,0.00,CLR,,0.00,835.2,WeatherDisplay:10.37,2013-03-09 20:16:00,
2013-03-09 12:17:00,52.9,14.0,30.33,West,279,6.9,6.9,21,0.00,CLR,,0.00,835.2,WeatherDisplay:10.37,2013-03-09 20:17:00,
2013-03-09 12:18:00,52.8,13.9,30.33,West,273,7.0,7.0,21,0.00,CLR,,0.00,835.2,WeatherDisplay:10.37,2013-03-09 20:18:00,
2013-03-09 12:21:00,52.4,14.6,30.33,NNW,329,4.6,4.6,22,0.00,CLR,,0.00,837.6,WeatherDisplay:10.37,2013-03-09 20:21:00,
2013-03-09 12:22:00,52.1,14.4,30.33,North,5,5.0,5.0,22,0.00,CLR,,0.00,835.2,WeatherDisplay:10.37,2013-03-09 20:22:00,
2013-03-09 12:23:00,52.1,14.4,30.33,North,350,2.0,2.4,22,0.00,CLR,,0.00,835.2,WeatherDisplay:10.37,2013-03-09 20:23:00,
2013-03-09 12:26:00,52.2,14.4,30.33,NNW,338,3.5,3.5,22,0.00,CLR,,0.00,841.2,WeatherDisplay:10.37,2013-03-09 20:26:00,
2013-03-09 12:28:00,52.6,15.8,30.33,North,5,3.5,3.5,23,0.00,CLR,,0.00,840.0,WeatherDisplay:10.37,2013-03-09 20:28:00,
2013-03-09 12:31:00,53.2,15.3,30.33,ENE,57,3.5,3.5,22,0.00,CLR,,0.00,840.0,WeatherDisplay:10.37,2013-03-09 20:31:00,
2013-03-09 12:33:00,54.2,16.1,30.33,NW,323,3.5,3.5,22,0.00,CLR,,0.00,837.6,WeatherDisplay:10.37,2013-03-09 20:33:00,
2013-03-09 12:36:00,53.8,14.7,30.33,WNW,298,6.9,6.9,21,0.00,CLR,,0.00,831.6,WeatherDisplay:10.37,2013-03-09 20:36:00,
2013-03-09 12:38:00,53.3,14.3,30.33,NNE,26,6.9,6.9,21,0.00,CLR,,0.00,829.2,WeatherDisplay:10.37,2013-03-09 20:38:00,
2013-03-09 12:42:00,53.9,15.9,30.33,ENE,58,4.6,4.6,22,0.00,CLR,,0.00,831.6,WeatherDisplay:10.37,2013-03-09 20:42:00,
2013-03-09 12:43:00,53.8,15.8,30.33,East,81,3.5,3.5,22,0.00,CLR,,0.00,829.2,WeatherDisplay:10.37,2013-03-09 20:43:00,
2013-03-09 12:44:00,54.0,16.0,30.33,East,97,3.5,3.5,22,0.00,CLR,,0.00,831.6,WeatherDisplay:10.37,2013-03-09 20:44:00,
2013-03-09 12:47:00,54.5,16.4,30.33,ENE,62,3.5,3.5,22,0.00,CLR,,0.00,829.2,WeatherDisplay:10.37,2013-03-09 20:47:00,
2013-03-09 12:48:00,55.7,16.3,30.33,East,96,3.5,3.5,21,0.00,CLR,,0.00,829.2,WeatherDisplay:10.37,2013-03-09 20:48:00,
2013-03-09 12:49:00,56.0,16.6,30.33,East,94,3.5,3.5,21,0.00,CLR,,0.00,826.8,WeatherDisplay:10.37,2013-03-09 20:49:00,
2013-03-09 12:52:00,54.8,14.4,30.33,NW,323,3.5,3.5,20,0.00,CLR,,0.00,831.6,WeatherDisplay:10.37,2013-03-09 20:52:00,
2013-03-09 12:53:00,54.4,12.9,30.32,WNW,300,5.8,5.8,19,0.00,CLR,,0.00,831.6,WeatherDisplay:10.37,2013-03-09 20:53:00,
2013-03-09 12:54:00,54.4,12.9,30.32,NNW,348,7.0,7.0,19,0.00,CLR,,0.00,829.2,WeatherDisplay:10.37,2013-03-09 20:54:00,
2013-03-09 12:57:00,54.2,12.8,30.33,WNW,286,6.9,6.9,19,0.00,CLR,,0.00,829.2,WeatherDisplay:10.37,2013-03-09 20:57:00,
2013-03-09 12:59:00,53.8,12.4,30.32,WSW,254,6.9,6.9,19,0.00,CLR,,0.00,824.4,WeatherDisplay:10.37,2013-03-09 20:59:00,
2013-03-09 13:02:00,53.3,13.2,30.32,WSW,250,5.8,5.8,20,0.00,CLR,,0.00,818.4,WeatherDisplay:10.37,2013-03-09 21:02:00,
2013-03-09 13:04:00,54.0,13.8,30.32,NNW,327,5.0,5.0,20,0.00,CLR,,0.00,818.4,WeatherDisplay:10.37,2013-03-09 21:04:00,
2013-03-09 13:07:00,53.9,12.5,30.32,NW,305,6.9,6.9,19,0.00,CLR,,0.00,816.0,WeatherDisplay:10.37,2013-03-09 21:07:00,
2013-03-09 13:08:00,53.7,12.4,30.32,WNW,290,6.9,6.9,19,0.00,CLR,,0.00,816.0,WeatherDisplay:10.37,2013-03-09 21:08:00,
2013-03-09 13:09:00,53.8,14.7,30.32,NW,324,4.0,4.0,21,0.00,CLR,,0.00,814.8,WeatherDisplay:10.37,2013-03-09 21:09:00,
2013-03-09 13:12:00,53.3,14.3,30.33,North,360,6.0,6.0,21,0.00,CLR,,0.00,814.8,WeatherDisplay:10.37,2013-03-09 21:12:00,
2013-03-09 13:13:00,53.2,13.1,30.33,North,360,8.1,8.1,20,0.00,CLR,,0.00,810.0,WeatherDisplay:10.37,2013-03-09 21:13:00,
2013-03-09 13:14:00,53.1,13.0,30.33,North,5,10.4,10.4,20,0.00,CLR,,0.00,805.2,WeatherDisplay:10.37,2013-03-09 21:14:00,
2013-03-09 13:15:00,52.9,12.9,30.33,NNW,344,10.4,10.4,20,0.00,CLR,,0.00,807.6,WeatherDisplay:10.37,2013-03-09 21:15:00,
2013-03-09 13:17:00,52.7,12.7,30.32,North,355,4.0,4.0,20,0.00,CLR,,0.00,804.0,WeatherDisplay:10.37,2013-03-09 21:17:00,
2013-03-09 13:18:00,52.6,12.6,30.32,North,5,4.6,4.6,20,0.00,CLR,,0.00,804.0,WeatherDisplay:10.37,2013-03-09 21:18:00,
2013-03-09 13:19:00,52.7,13.8,30.33,NNE,13,6.9,6.9,21,0.00,CLR,,0.00,801.6,WeatherDisplay:10.37,2013-03-09 21:19:00,
2013-03-09 13:20:00,52.9,14.0,30.33,NNW,337,4.6,4.6,21,0.00,CLR,,0.00,801.6,WeatherDisplay:10.37,2013-03-09 21:20:00,
2013-03-09 13:22:00,53.1,14.1,30.33,NE,46,6.9,6.9,21,0.00,CLR,,0.00,796.8,WeatherDisplay:10.37,2013-03-09 21:22:00,
2013-03-09 13:24:00,53.3,14.3,30.33,North,355,5.8,5.8,21,0.00,CLR,,0.00,793.2,WeatherDisplay:10.37,2013-03-09 21:24:00,
2013-03-09 13:25:00,53.4,13.3,30.33,WNW,293,6.0,6.0,20,0.00,CLR,,0.00,793.2,WeatherDisplay:10.37,2013-03-09 21:25:00,
2013-03-09 13:27:00,53.5,13.4,30.33,NNW,342,6.9,6.9,20,0.00,CLR,,0.00,790.8,WeatherDisplay:10.37,2013-03-09 21:27:00,
2013-03-09 13:29:00,53.6,14.5,30.33,North,355,5.0,5.0,21,0.00,CLR,,0.00,787.2,WeatherDisplay:10.37,2013-03-09 21:29:00,
2013-03-09 13:30:00,53.8,14.7,30.32,North,355,8.1,8.1,21,0.00,CLR,,0.00,787.2,WeatherDisplay:10.37,2013-03-09 21:30:00,
2013-03-09 13:31:00,53.5,14.5,30.33,North,355,8.1,8.1,21,0.00,CLR,,0.00,782.4,WeatherDisplay:10.37,2013-03-09 21:31:00,
2013-03-09 13:32:00,53.8,14.7,30.32,NNW,338,4.6,4.6,21,0.00,CLR,,0.00,788.4,WeatherDisplay:10.37,2013-03-09 21:32:00,
2013-03-09 13:34:00,53.5,14.5,30.32,NNW,330,4.6,4.6,21,0.00,CLR,,0.00,787.2,WeatherDisplay:10.37,2013-03-09 21:34:00,
2013-03-09 13:35:00,53.3,14.3,30.33,North,360,4.6,4.6,21,0.00,CLR,,0.00,782.4,WeatherDisplay:10.37,2013-03-09 21:35:00,
2013-03-09 13:36:00,53.3,14.3,30.33,North,360,3.5,3.5,21,0.00,CLR,,0.00,780.0,WeatherDisplay:10.37,2013-03-09 21:36:00,
2013-03-09 13:38:00,54.1,15.0,30.32,North,360,0.0,0.1,21,0.00,CLR,,0.00,778.8,WeatherDisplay:10.37,2013-03-09 21:38:00,
2013-03-09 13:39:00,55.0,14.6,30.32,NNE,19,1.2,1.2,20,0.00,CLR,,0.00,778.8,WeatherDisplay:10.37,2013-03-09 21:39:00,
2013-03-09 13:40:00,55.3,13.7,30.32,NNE,19,3.5,3.5,19,0.00,CLR,,0.00,774.0,WeatherDisplay:10.37,2013-03-09 21:40:00,
2013-03-09 13:41:00,56.0,15.4,30.32,NNE,19,3.5,3.5,20,0.00,CLR,,0.00,774.0,WeatherDisplay:10.37,2013-03-09 21:41:00,
2013-03-09 13:43:00,57.7,15.7,30.32,NE,41,3.5,3.5,19,0.00,CLR,,0.00,770.4,WeatherDisplay:10.37,2013-03-09 21:43:00,
2013-03-09 13:44:00,58.2,13.5,30.32,NNE,17,4.6,4.6,17,0.00,CLR,,0.00,770.4,WeatherDisplay:10.37,2013-03-09 21:44:00,
2013-03-09 13:45:00,57.7,14.4,30.32,North,355,6.9,6.9,18,0.00,CLR,,0.00,765.6,WeatherDisplay:10.37,2013-03-09 21:45:00,
2013-03-09 13:46:00,56.9,13.8,30.32,North,360,5.8,5.8,18,0.00,CLR,,0.00,763.2,WeatherDisplay:10.37,2013-03-09 21:46:00,
2013-03-09 13:48:00,56.4,15.8,30.32,East,89,3.5,3.5,20,0.00,CLR,,0.00,759.6,WeatherDisplay:10.37,2013-03-09 21:48:00,
2013-03-09 13:49:00,57.5,14.3,30.32,ESE,107,2.3,2.3,18,0.00,CLR,,0.00,757.2,WeatherDisplay:10.37,2013-03-09 21:49:00,
2013-03-09 13:50:00,57.6,13.0,30.32,ESE,116,3.5,3.5,17,0.00,CLR,,0.00,759.6,WeatherDisplay:10.37,2013-03-09 21:50:00,
2013-03-09 13:51:00,57.4,12.9,30.32,SE,132,2.3,2.3,17,0.00,CLR,,0.00,759.6,WeatherDisplay:10.37,2013-03-09 21:51:00,
2013-03-09 13:53:00,56.6,13.5,30.32,NNE,13,2.0,2.0,18,0.00,CLR,,0.00,753.6,WeatherDisplay:10.37,2013-03-09 21:53:00,
2013-03-09 13:55:00,56.6,14.8,30.32,NNE,15,5.8,5.8,19,0.00,CLR,,0.00,751.2,WeatherDisplay:10.37,2013-03-09 21:55:00,
2013-03-09 13:56:00,56.8,14.9,30.32,NE,52,5.8,5.8,19,0.00,CLR,,0.00,751.2,WeatherDisplay:10.37,2013-03-09 21:56:00,
2013-03-09 13:58:00,56.5,13.4,30.32,North,5,8.1,8.1,18,0.00,CLR,,0.00,745.2,WeatherDisplay:10.37,2013-03-09 21:58:00,
2013-03-09 14:00:00,55.7,14.0,30.32,NNW,344,8.1,8.1,19,0.00,CLR,,0.00,735.6,WeatherDisplay:10.37,2013-03-09 22:00:00,
2013-03-09 14:01:00,55.5,13.8,30.32,NW,304,6.9,6.9,19,0.00,CLR,,0.00,738.0,WeatherDisplay:10.37,2013-03-09 22:01:00,
2013-03-09 14:04:00,54.7,13.2,30.32,WNW,289,6.9,6.9,19,0.00,CLR,,0.00,734.4,WeatherDisplay:10.37,2013-03-09 22:04:00,
2013-03-09 14:05:00,54.7,13.2,30.32,North,5,5.0,5.0,19,0.00,CLR,,0.00,734.4,WeatherDisplay:10.37,2013-03-09 22:05:00,
2013-03-09 14:07:00,54.6,14.3,30.32,NNW,340,5.0,5.0,20,0.00,CLR,,0.00,727.2,WeatherDisplay:10.37,2013-03-09 22:07:00,
2013-03-09 14:09:00,54.9,14.5,30.32,NNE,24,3.5,3.5,20,0.00,CLR,,0.00,726.0,WeatherDisplay:10.37,2013-03-09 22:09:00,
2013-03-09 14:10:00,55.0,14.6,30.32,NNE,24,7.0,7.0,20,0.00,CLR,,0.00,723.6,WeatherDisplay:10.37,2013-03-09 22:10:00,
2013-03-09 14:12:00,55.3,14.8,30.32,NW,323,6.9,6.9,20,0.00,CLR,,0.00,718.8,WeatherDisplay:10.37,2013-03-09 22:12:00,
2013-03-09 14:15:00,55.7,12.8,30.32,NNW,334,3.5,3.5,18,0.00,CLR,,0.00,715.2,WeatherDisplay:10.37,2013-03-09 22:15:00,
2013-03-09 14:16:00,56.0,13.0,30.32,NW,318,3.5,3.5,18,0.00,CLR,,0.00,710.4,WeatherDisplay:10.37,2013-03-09 22:16:00,
2013-03-09 14:17:00,55.8,12.9,30.32,NW,326,3.5,3.5,18,0.00,CLR,,0.00,706.8,WeatherDisplay:10.37,2013-03-09 22:17:00,
2013-03-09 14:20:00,55.9,15.3,30.32,NNW,342,4.6,4.6,20,0.00,CLR,,0.00,702.0,WeatherDisplay:10.37,2013-03-09 22:20:00,
2013-03-09 14:21:00,56.0,14.3,30.32,North,350,6.0,6.0,19,0.00,CLR,,0.00,700.8,WeatherDisplay:10.37,2013-03-09 22:21:00,
2013-03-09 14:22:00,55.7,12.8,30.32,North,5,9.2,9.2,18,0.00,CLR,,0.00,693.6,WeatherDisplay:10.37,2013-03-09 22:22:00,
2013-03-09 14:25:00,55.0,13.4,30.32,North,355,4.0,4.0,19,0.00,CLR,,0.00,687.6,WeatherDisplay:10.37,2013-03-09 22:25:00,
2013-03-09 14:26:00,54.8,14.4,30.32,NNE,24,3.5,3.5,20,0.00,CLR,,0.00,685.2,WeatherDisplay:10.37,2013-03-09 22:26:00,
2013-03-09 14:27:00,55.7,14.0,30.32,NE,36,3.5,3.5,19,0.00,CLR,,0.00,676.8,WeatherDisplay:10.37,2013-03-09 22:27:00,
2013-03-09 14:30:00,57.1,15.2,30.33,East,81,5.0,5.0,19,0.00,CLR,,0.00,673.2,WeatherDisplay:10.37,2013-03-09 22:30:00,
2013-03-09 14:32:00,57.3,14.1,30.33,NNW,330,6.9,6.9,18,0.00,CLR,,0.00,668.4,WeatherDisplay:10.37,2013-03-09 22:32:00,
2013-03-09 14:33:00,57.6,14.3,30.33,NE,51,3.5,3.5,18,0.00,CLR,,0.00,668.4,WeatherDisplay:10.37,2013-03-09 22:33:00,
2013-03-09 14:35:00,58.4,13.7,30.33,East,85,6.9,6.9,17,0.00,CLR,,0.00,666.0,WeatherDisplay:10.37,2013-03-09 22:35:00,
2013-03-09 14:37:00,59.4,14.5,30.33,East,88,3.5,3.5,17,0.00,CLR,,0.00,657.6,WeatherDisplay:10.37,2013-03-09 22:37:00,
2013-03-09 14:38:00,59.8,16.1,30.33,East,91,3.5,3.5,18,0.00,CLR,,0.00,657.6,WeatherDisplay:10.37,2013-03-09 22:38:00,
2013-03-09 14:40:00,60.8,14.3,30.33,NE,42,9.2,9.2,16,0.00,CLR,,0.00,654.0,WeatherDisplay:10.37,2013-03-09 22:40:00,
2013-03-09 14:43:00,59.0,12.8,30.33,North,360,5.0,5.0,16,0.00,CLR,,0.00,648.0,WeatherDisplay:10.37,2013-03-09 22:43:00,
2013-03-09 14:45:00,57.9,13.3,30.33,NNE,26,3.5,3.5,17,0.00,CLR,,0.00,637.2,WeatherDisplay:10.37,2013-03-09 22:45:00,
2013-03-09 14:48:00,58.7,13.9,30.33,North,5,3.5,3.5,17,0.00,CLR,,0.00,632.4,WeatherDisplay:10.37,2013-03-09 22:48:00,
2013-03-09 14:50:00,58.2,13.5,30.33,North,9,5.8,5.8,17,0.00,CLR,,0.00,624.0,WeatherDisplay:10.37,2013-03-09 22:50:00,
2013-03-09 14:53:00,56.8,12.4,30.33,North,355,6.9,6.9,17,0.00,CLR,,0.00,618.0,WeatherDisplay:10.37,2013-03-09 22:53:00,
2013-03-09 14:55:00,56.8,13.7,30.33,NW,319,5.8,5.8,18,0.00,CLR,,0.00,614.4,WeatherDisplay:10.37,2013-03-09 22:55:00,
2013-03-09 14:56:00,56.8,12.4,30.33,NNW,346,4.6,4.6,17,0.00,CLR,,0.00,609.6,WeatherDisplay:10.37,2013-03-09 22:56:00,
2013-03-09 14:58:00,57.1,12.6,30.33,North,355,4.6,4.6,17,0.00,CLR,,0.00,603.6,WeatherDisplay:10.37,2013-03-09 22:58:00,
2013-03-09 14:59:00,57.1,12.6,30.33,North,360,4.6,4.6,17,0.00,CLR,,0.00,601.2,WeatherDisplay:10.37,2013-03-09 22:59:00,
2013-03-09 15:00:00,57.7,13.1,30.33,NNE,20,4.0,4.0,17,0.00,CLR,,0.00,596.4,WeatherDisplay:10.37,2013-03-09 23:00:00,
2013-03-09 15:02:00,58.0,13.4,30.33,NNE,17,3.5,3.5,17,0.00,CLR,,0.00,592.8,WeatherDisplay:10.37,2013-03-09 23:02:00,
2013-03-09 15:03:00,58.0,12.0,30.33,ENE,57,3.5,3.5,16,0.00,CLR,,0.00,590.4,WeatherDisplay:10.37,2013-03-09 23:03:00,
2013-03-09 15:04:00,58.2,12.1,30.33,ESE,113,3.5,3.5,16,0.00,CLR,,0.00,588.0,WeatherDisplay:10.37,2013-03-09 23:04:00,
2013-03-09 15:05:00,59.3,14.4,30.33,ESE,117,3.5,3.5,17,0.00,CLR,,0.00,584.4,WeatherDisplay:10.37,2013-03-09 23:05:00,
2013-03-09 15:07:00,59.8,13.4,30.33,East,82,1.2,0.0,16,0.00,CLR,,0.00,582.0,WeatherDisplay:10.37,2013-03-09 23:07:00,
2013-03-09 15:08:00,59.7,11.9,30.33,East,83,1.2,1.2,15,0.00,CLR,,0.00,573.6,WeatherDisplay:10.37,2013-03-09 23:08:00,
2013-03-09 15:09:00,59.9,14.9,30.33,East,83,1.2,1.2,17,0.00,CLR,,0.00,576.0,WeatherDisplay:10.37,2013-03-09 23:09:00,
2013-03-09 15:10:00,60.8,14.3,30.33,ENE,61,2.3,2.3,16,0.00,CLR,,0.00,571.2,WeatherDisplay:10.37,2013-03-09 23:10:00,
2013-03-09 15:12:00,60.5,12.5,30.33,North,355,5.8,5.8,15,0.00,CLR,,0.00,567.6,WeatherDisplay:10.37,2013-03-09 23:12:00,
2013-03-09 15:13:00,59.7,13.4,30.33,ENE,61,3.5,3.5,16,0.00,CLR,,0.00,561.6,WeatherDisplay:10.37,2013-03-09 23:13:00,
2013-03-09 15:14:00,59.6,14.7,30.33,NE,47,3.5,3.5,17,0.00,CLR,,0.00,556.8,WeatherDisplay:10.37,2013-03-09 23:14:00,
2013-03-09 15:15:00,59.2,14.3,30.33,NE,47,3.5,3.5,17,0.00,CLR,,0.00,554.4,WeatherDisplay:10.37,2013-03-09 23:15:00,
2013-03-09 15:17:00,61.1,14.5,30.33,NE,46,3.0,3.0,16,0.00,CLR,,0.00,546.0,WeatherDisplay:10.37,2013-03-09 23:17:00,
2013-03-09 15:18:00,61.2,14.6,30.33,NNE,20,3.5,3.5,16,0.00,CLR,,0.00,544.8,WeatherDisplay:10.37,2013-03-09 23:18:00,
2013-03-09 15:19:00,60.4,12.5,30.33,North,360,4.6,4.6,15,0.00,CLR,,0.00,542.4,WeatherDisplay:10.37,2013-03-09 23:19:00,
2013-03-09 15:20:00,59.6,14.7,30.33,NNW,341,5.8,5.8,17,0.00,CLR,,0.00,540.0,WeatherDisplay:10.37,2013-03-09 23:20:00,
2013-03-09 15:23:00,58.7,13.9,30.33,North,5,5.0,5.0,17,0.00,CLR,,0.00,531.6,WeatherDisplay:10.37,2013-03-09 23:23:00,
2013-03-09 15:24:00,58.6,13.9,30.33,NNE,19,4.6,4.6,17,0.00,CLR,,0.00,529.2,WeatherDisplay:10.37,2013-03-09 23:24:00,
2013-03-09 15:25:00,58.8,14.0,30.33,NNE,19,4.6,4.6,17,0.00,CLR,,0.00,525.6,WeatherDisplay:10.37,2013-03-09 23:25:00,
2013-03-09 15:26:00,59.0,14.2,30.33,North,350,3.5,3.5,17,0.00,CLR,,0.00,523.2,WeatherDisplay:10.37,2013-03-09 23:26:00,
2013-03-09 15:28:00,59.6,14.7,30.33,North,360,1.2,1.2,17,0.00,CLR,,0.00,514.8,WeatherDisplay:10.37,2013-03-09 23:28:00,
2013-03-09 15:29:00,60.1,15.1,30.33,North,360,2.3,2.3,17,0.00,CLR,,0.00,512.4,WeatherDisplay:10.37,2013-03-09 23:29:00,
2013-03-09 15:30:00,60.1,13.7,30.33,NNW,346,3.5,3.5,16,0.00,CLR,,0.00,506.4,WeatherDisplay:10.37,2013-03-09 23:30:00,
2013-03-09 15:31:00,59.6,14.7,30.33,NNW,344,5.8,5.8,17,0.00,CLR,,0.00,504.0,WeatherDisplay:10.37,2013-03-09 23:31:00,
2013-03-09 15:34:00,58.0,13.4,30.33,WNW,301,5.8,5.8,17,0.00,CLR,,0.00,498.0,WeatherDisplay:10.37,2013-03-09 23:34:00,
2013-03-09 15:35:00,57.8,13.2,30.33,NW,309,2.3,2.3,17,0.00,CLR,,0.00,476.4,WeatherDisplay:10.37,2013-03-09 23:35:00,
2013-03-09 15:36:00,57.9,14.6,30.33,NW,310,2.3,2.3,18,0.00,CLR,,0.00,476.4,WeatherDisplay:10.37,2013-03-09 23:36:00,
2013-03-09 15:39:00,57.8,13.2,30.33,NW,311,4.6,4.6,17,0.00,CLR,,0.00,481.2,WeatherDisplay:10.37,2013-03-09 23:39:00,
2013-03-09 15:40:00,57.3,14.1,30.33,North,355,5.8,5.8,18,0.00,CLR,,0.00,475.2,WeatherDisplay:10.37,2013-03-09 23:40:00,
2013-03-09 15:41:00,57.5,14.3,30.33,North,5,5.8,5.8,18,0.00,CLR,,0.00,475.2,WeatherDisplay:10.37,2013-03-09 23:41:00,
2013-03-09 15:44:00,57.2,14.0,30.33,NE,38,6.9,6.9,18,0.00,CLR,,0.00,464.4,WeatherDisplay:10.37,2013-03-09 23:44:00,
2013-03-09 15:46:00,58.4,15.0,30.33,NNW,348,2.0,2.0,18,0.00,CLR,,0.00,457.2,WeatherDisplay:10.37,2013-03-09 23:46:00,
2013-03-09 15:49:00,58.1,14.8,30.33,East,79,3.5,3.5,18,0.00,CLR,,0.00,447.6,WeatherDisplay:10.37,2013-03-09 23:49:00,
2013-03-09 15:51:00,58.5,15.1,30.33,ENE,65,2.3,2.3,18,0.00,CLR,,0.00,440.4,WeatherDisplay:10.37,2013-03-09 23:51:00,
2013-03-09 15:54:00,61.3,16.1,30.33,East,85,3.0,3.0,17,0.00,CLR,,0.00,426.0,WeatherDisplay:10.37,2013-03-09 23:54:00,
2013-03-09 15:55:00,61.7,16.4,30.33,NW,316,2.0,2.0,17,0.00,CLR,,0.00,426.0,WeatherDisplay:10.37,2013-03-09 23:55:00,
2013-03-09 15:57:00,60.9,14.3,30.33,NNE,19,4.6,4.6,16,0.00,CLR,,0.00,405.6,WeatherDisplay:10.37,2013-03-09 23:57:00,
2013-03-09 15:59:00,60.9,15.7,30.33,ENE,67,3.5,3.5,17,0.00,CLR,,0.00,398.4,WeatherDisplay:10.37,2013-03-09 23:59:00,
2013-03-09 16:00:00,61.1,15.9,30.33,ENE,71,3.5,3.5,17,0.00,CLR,,0.00,398.4,WeatherDisplay:10.37,2013-03-10 00:00:00,
2013-03-09 16:02:00,60.9,15.7,30.34,North,5,7.0,7.0,17,0.00,CLR,,0.00,396.0,WeatherDisplay:10.37,2013-03-10 00:02:00,
2013-03-09 16:04:00,59.0,15.5,30.33,ENE,65,3.5,3.5,18,0.00,CLR,,0.00,367.2,WeatherDisplay:10.37,2013-03-10 00:04:00,
2013-03-09 16:05:00,59.0,15.5,30.33,ENE,65,3.5,3.5,18,0.00,CLR,,0.00,367.2,WeatherDisplay:10.37,2013-03-10 00:05:00,
2013-03-09 16:07:00,58.1,14.8,30.33,NE,56,4.6,4.6,18,0.00,CLR,,0.00,386.4,WeatherDisplay:10.37,2013-03-10 00:07:00,
2013-03-09 16:09:00,59.3,15.7,30.33,ENE,67,3.5,3.5,18,0.00,CLR,,0.00,378.0,WeatherDisplay:10.37,2013-03-10 00:09:00,
2013-03-09 16:10:00,59.7,16.1,30.33,ENE,67,3.5,3.5,18,0.00,CLR,,0.00,378.0,WeatherDisplay:10.37,2013-03-10 00:10:00,
2013-03-09 16:12:00,60.9,17.0,30.33,NE,37,2.3,2.3,18,0.00,CLR,,0.00,361.2,WeatherDisplay:10.37,2013-03-10 00:12:00,
2013-03-09 16:14:00,61.4,16.1,30.33,NE,37,3.5,3.5,17,0.00,CLR,,0.00,348.0,WeatherDisplay:10.37,2013-03-10 00:14:00,
2013-03-09 16:15:00,61.4,16.1,30.33,ENE,64,3.5,3.5,17,0.00,CLR,,0.00,350.4,WeatherDisplay:10.37,2013-03-10 00:15:00,
2013-03-09 16:17:00,61.3,16.1,30.33,East,99,4.6,4.6,17,0.00,CLR,,0.00,344.4,WeatherDisplay:10.37,2013-03-10 00:17:00,
2013-03-09 16:18:00,61.3,16.1,30.33,East,99,4.6,4.6,17,0.00,CLR,,0.00,344.4,WeatherDisplay:10.37,2013-03-10 00:18:00,
2013-03-09 16:20:00,60.9,15.7,30.33,NNE,25,2.3,2.3,17,0.00,CLR,,0.00,337.2,WeatherDisplay:10.37,2013-03-10 00:20:00,
2013-03-09 16:22:00,60.4,16.6,30.33,East,100,4.6,4.6,18,0.00,CLR,,0.00,328.8,WeatherDisplay:10.37,2013-03-10 00:22:00,
2013-03-09 16:23:00,60.4,17.9,30.33,East,101,4.6,4.6,19,0.00,CLR,,0.00,325.2,WeatherDisplay:10.37,2013-03-10 00:23:00,
2013-03-09 16:25:00,61.1,17.2,30.33,East,101,5.8,5.8,18,0.00,CLR,,0.00,312.0,WeatherDisplay:10.37,2013-03-10 00:25:00,
2013-03-09 16:27:00,61.8,16.5,30.33,East,101,1.0,0.0,17,0.00,CLR,,0.00,306.0,WeatherDisplay:10.37,2013-03-10 00:27:00,
2013-03-09 16:28:00,61.7,16.4,30.33,North,5,4.0,4.0,17,0.00,CLR,,0.00,292.8,WeatherDisplay:10.37,2013-03-10 00:28:00,
2013-03-09 16:30:00,60.8,15.6,30.33,ENE,62,2.0,4.0,17,0.00,CLR,,0.00,286.8,WeatherDisplay:10.37,2013-03-10 00:30:00,
2013-03-09 16:32:00,58.8,16.6,30.32,NE,55,4.6,4.6,19,0.00,CLR,,0.00,276.0,WeatherDisplay:10.37,2013-03-10 00:32:00,
2013-03-09 16:34:00,58.5,16.3,30.32,East,88,4.6,4.6,19,0.00,CLR,,0.00,272.4,WeatherDisplay:10.37,2013-03-10 00:34:00,
2013-03-09 16:35:00,59.0,16.7,30.32,NNW,341,4.6,4.6,19,0.00,CLR,,0.00,261.6,WeatherDisplay:10.37,2013-03-10 00:35:00,
2013-03-09 16:36:00,59.0,16.7,30.32,NNW,341,4.6,4.6,19,0.00,CLR,,0.00,261.6,WeatherDisplay:10.37,2013-03-10 00:36:00,
2013-03-09 16:38:00,58.3,17.3,30.33,NNW,335,7.0,7.0,20,0.00,CLR,,0.00,255.6,WeatherDisplay:10.37,2013-03-10 00:38:00,
2013-03-09 16:39:00,57.3,16.5,30.33,NW,319,6.9,6.9,20,0.00,CLR,,0.00,253.2,WeatherDisplay:10.37,2013-03-10 00:39:00,
2013-03-09 16:40:00,56.4,15.8,30.33,NW,315,4.6,4.6,20,0.00,CLR,,0.00,230.4,WeatherDisplay:10.37,2013-03-10 00:40:00,
2013-03-09 16:41:00,56.1,16.6,30.33,NW,325,5.0,5.0,21,0.00,CLR,,0.00,222.0,WeatherDisplay:10.37,2013-03-10 00:41:00,
2013-03-09 16:43:00,55.5,16.1,30.33,NW,315,4.6,4.6,21,0.00,CLR,,0.00,217.2,WeatherDisplay:10.37,2013-03-10 00:43:00,
2013-03-09 16:45:00,55.6,17.3,30.33,North,349,3.0,3.0,22,0.00,CLR,,0.00,214.8,WeatherDisplay:10.37,2013-03-10 00:45:00,
2013-03-09 16:46:00,55.8,17.5,30.33,NNW,348,3.5,3.5,22,0.00,CLR,,0.00,208.8,WeatherDisplay:10.37,2013-03-10 00:46:00,
2013-03-09 16:48:00,56.2,16.7,30.33,North,355,5.8,5.8,21,0.00,CLR,,0.00,198.0,WeatherDisplay:10.37,2013-03-10 00:48:00,
2013-03-09 16:50:00,56.2,17.8,30.33,North,355,3.5,3.5,22,0.00,CLR,,0.00,194.4,WeatherDisplay:10.37,2013-03-10 00:50:00,
2013-03-09 16:51:00,55.9,16.5,30.32,North,355,3.5,3.5,21,0.00,CLR,,0.00,187.2,WeatherDisplay:10.37,2013-03-10 00:51:00,
2013-03-09 16:52:00,55.8,17.5,30.32,North,355,3.5,3.5,22,0.00,CLR,,0.00,187.2,WeatherDisplay:10.37,2013-03-10 00:52:00,
2013-03-09 16:53:00,55.5,17.2,30.32,North,355,3.5,3.5,22,0.00,CLR,,0.00,189.6,WeatherDisplay:10.37,2013-03-10 00:53:00,
2013-03-09 16:55:00,55.3,16.0,30.33,North,355,3.5,3.5,21,0.00,CLR,,0.00,183.6,WeatherDisplay:10.37,2013-03-10 00:55:00,
2013-03-09 16:56:00,55.3,17.0,30.33,North,355,3.5,3.5,22,0.00,CLR,,0.00,175.2,WeatherDisplay:10.37,2013-03-10 00:56:00,
2013-03-09 16:57:00,55.3,17.0,30.33,North,355,3.5,3.5,22,0.00,CLR,,0.00,175.2,WeatherDisplay:10.37,2013-03-10 00:57:00,
2013-03-09 16:58:00,55.4,17.1,30.33,North,355,2.3,2.3,22,0.00,CLR,,0.00,160.8,WeatherDisplay:10.37,2013-03-10 00:58:00,
2013-03-09 17:00:00,55.7,17.4,30.33,North,355,3.0,3.0,22,0.00,CLR,,0.00,141.6,WeatherDisplay:10.37,2013-03-10 01:00:00,
2013-03-09 17:02:00,56.0,17.6,30.34,North,355,3.5,3.5,22,0.00,CLR,,0.00,139.2,WeatherDisplay:10.37,2013-03-10 01:02:00,
2013-03-09 17:03:00,56.2,17.8,30.34,North,355,2.3,2.3,22,0.00,CLR,,0.00,130.8,WeatherDisplay:10.37,2013-03-10 01:03:00,
2013-03-09 17:06:00,55.8,17.5,30.34,North,351,3.5,3.5,22,0.00,CLR,,0.00,109.2,WeatherDisplay:10.37,2013-03-10 01:06:00,
2013-03-09 17:07:00,55.7,17.4,30.34,North,351,3.5,3.5,22,0.00,CLR,,0.00,114.0,WeatherDisplay:10.37,2013-03-10 01:07:00,
2013-03-09 17:08:00,55.7,17.4,30.33,North,351,2.3,2.3,22,0.00,CLR,,0.00,117.6,WeatherDisplay:10.37,2013-03-10 01:08:00,
2013-03-09 17:11:00,56.7,18.2,30.33,North,351,1.2,1.2,22,0.00,CLR,,0.00,116.4,WeatherDisplay:10.37,2013-03-10 01:11:00,
2013-03-09 17:12:00,56.8,18.3,30.33,North,351,1.2,1.2,22,0.00,CLR,,0.00,105.6,WeatherDisplay:10.37,2013-03-10 01:12:00,
2013-03-09 17:13:00,56.6,17.1,30.33,North,351,2.3,2.3,21,0.00,CLR,,0.00,103.2,WeatherDisplay:10.37,2013-03-10 01:13:00,
2013-03-09 17:16:00,56.1,17.7,30.33,North,351,1.2,1.2,22,0.00,CLR,,0.00,97.2,WeatherDisplay:10.37,2013-03-10 01:16:00,
2013-03-09 17:17:00,56.0,17.6,30.33,North,351,1.2,1.2,22,0.00,CLR,,0.00,92.4,WeatherDisplay:10.37,2013-03-10 01:17:00,
2013-03-09 17:18:00,55.8,17.5,30.33,North,351,1.2,1.2,22,0.00,CLR,,0.00,86.4,WeatherDisplay:10.37,2013-03-10 01:18:00,
2013-03-09 17:19:00,55.7,17.4,30.33,North,350,1.2,1.2,22,0.00,CLR,,0.00,84.0,WeatherDisplay:10.37,2013-03-10 01:19:00,
2013-03-09 17:21:00,54.9,16.7,30.34,NNW,338,5.0,5.0,22,0.00,CLR,,0.00,75.6,WeatherDisplay:10.37,2013-03-10 01:21:00,
2013-03-09 17:22:00,54.7,17.6,30.33,NNW,338,4.6,4.6,23,0.00,CLR,,0.00,75.6,WeatherDisplay:10.37,2013-03-10 01:22:00,
2013-03-09 17:23:00,54.6,17.5,30.33,NNW,338,4.6,4.6,23,0.00,CLR,,0.00,69.6,WeatherDisplay:10.37,2013-03-10 01:23:00,
2013-03-09 17:24:00,54.5,18.4,30.34,NNW,338,2.3,2.3,24,0.00,CLR,,0.00,67.2,WeatherDisplay:10.37,2013-03-10 01:24:00,
2013-03-09 17:26:00,54.2,18.1,30.33,NNW,338,2.3,2.3,24,0.00,FEW,,0.00,58.8,WeatherDisplay:10.37,2013-03-10 01:26:00,
2013-03-09 17:27:00,54.1,18.1,30.33,NNW,338,2.3,2.3,24,0.00,FEW,,0.00,58.8,WeatherDisplay:10.37,2013-03-10 01:27:00,
2013-03-09 17:28:00,54.1,18.1,30.33,NNW,338,1.2,1.2,24,0.00,FEW,,0.00,55.2,WeatherDisplay:10.37,2013-03-10 01:28:00,
2013-03-09 17:29:00,54.1,18.1,30.34,NNW,338,2.3,2.3,24,0.00,FEW,,0.00,55.2,WeatherDisplay:10.37,2013-03-10 01:29:00,
2013-03-09 17:32:00,54.2,18.1,30.34,NNW,338,2.3,2.3,24,0.00,FEW,,0.00,44.4,WeatherDisplay:10.37,2013-03-10 01:32:00,
2013-03-09 17:33:00,54.2,19.1,30.34,NNW,338,2.3,2.3,25,0.00,FEW,,0.00,39.6,WeatherDisplay:10.37,2013-03-10 01:33:00,
2013-03-09 17:34:00,54.2,19.1,30.34,NNW,335,4.0,4.0,25,0.00,SCT,,0.00,39.6,WeatherDisplay:10.37,2013-03-10 01:34:00,
2013-03-09 17:37:00,53.5,18.5,30.34,NNW,335,2.3,2.3,25,0.00,SCT,,0.00,31.2,WeatherDisplay:10.37,2013-03-10 01:37:00,
2013-03-09 17:38:00,53.3,19.2,30.34,NNW,335,2.3,2.3,26,0.00,SCT,,0.00,30.0,WeatherDisplay:10.37,2013-03-10 01:38:00,
2013-03-09 17:39:00,53.3,19.2,30.34,NNW,335,1.2,1.2,26,0.00,SCT,,0.00,30.0,WeatherDisplay:10.37,2013-03-10 01:39:00,
2013-03-09 17:42:00,53.1,20.0,30.34,North,10,2.3,2.3,27,0.00,SCT,,0.00,22.8,WeatherDisplay:10.37,2013-03-10 01:42:00,
2013-03-09 17:43:00,53.1,20.0,30.34,North,10,2.3,2.3,27,0.00,SCT,,0.00,22.8,WeatherDisplay:10.37,2013-03-10 01:43:00,
2013-03-09 17:44:00,53.0,19.9,30.34,North,10,2.3,2.3,27,0.00,SCT,,0.00,21.6,WeatherDisplay:10.37,2013-03-10 01:44:00,
2013-03-09 17:48:00,52.4,19.3,30.34,North,360,2.3,2.3,27,0.00,SCT,,0.00,19.2,WeatherDisplay:10.37,2013-03-10 01:48:00,
2013-03-09 17:49:00,52.2,19.2,30.34,North,360,2.3,2.3,27,0.00,FEW,,0.00,16.8,WeatherDisplay:10.37,2013-03-10 01:49:00,
2013-03-09 17:50:00,52.0,19.0,30.34,North,360,2.3,2.3,27,0.00,SCT,,0.00,16.8,WeatherDisplay:10.37,2013-03-10 01:50:00,
2013-03-09 17:53:00,51.6,18.7,30.34,North,360,2.3,2.3,27,0.00,FEW,,0.00,13.2,WeatherDisplay:10.37,2013-03-10 01:53:00,
2013-03-09 17:54:00,51.6,18.7,30.34,North,360,1.2,1.2,27,0.00,CLR,,0.00,13.2,WeatherDisplay:10.37,2013-03-10 01:54:00,
2013-03-09 17:55:00,51.5,18.6,30.34,North,360,1.2,0.0,27,0.00,CLR,,0.00,10.8,WeatherDisplay:10.37,2013-03-10 01:55:00,
2013-03-09 17:58:00,51.4,19.3,30.34,North,360,0.0,0.0,28,0.00,CLR,,0.00,8.4,WeatherDisplay:10.37,2013-03-10 01:58:00,
2013-03-09 18:00:00,51.2,19.2,30.34,North,360,0.0,0.0,28,0.00,CLR,,0.00,6.0,WeatherDisplay:10.37,2013-03-10 02:00:00,
2013-03-09 18:03:00,50.8,19.6,30.34,North,360,0.0,0.0,29,0.00,,,0.00,6.0,WeatherDisplay:10.37,2013-03-10 02:03:00,
2013-03-09 18:05:00,50.6,19.5,30.34,North,360,0.0,0.0,29,0.00,,,0.00,0.0,WeatherDisplay:10.37,2013-03-10 02:05:00,
2013-03-09 18:09:00,50.1,19.8,30.34,North,360,1.2,1.2,30,0.00,,,0.00,0.0,WeatherDisplay:10.37,2013-03-10 02:09:00,
2013-03-09 18:10:00,49.9,19.7,30.34,North,360,0.0,0.0,30,0.00,,,0.00,0.0,WeatherDisplay:10.37,2013-03-10 02:10:00,
2013-03-09 18:11:00,49.8,20.3,30.34,North,360,0.0,0.0,31,0.00,,,0.00,0.0,WeatherDisplay:10.37,2013-03-10 02:11:00,
2013-03-09 18:14:00,49.3,19.9,30.35,North,360,1.2,0.0,31,0.00,,,0.00,0.0,WeatherDisplay:10.37,2013-03-10 02:14:00,
2013-03-09 18:16:00,49.0,20.4,30.35,North,360,2.3,2.3,32,0.00,,,0.00,0.0,WeatherDisplay:10.37,2013-03-10 02:16:00,
2013-03-09 18:19:00,48.8,20.2,30.35,North,360,2.3,2.3,32,0.00,,,0.00,0.0,WeatherDisplay:10.37,2013-03-10 02:19:00,
2013-03-09 18:21:00,48.7,20.8,30.35,North,360,1.2,0.0,33,0.00,,,0.00,0.0,WeatherDisplay:10.37,2013-03-10 02:21:00,
2013-03-09 18:24:00,48.5,20.7,30.35,North,360,1.2,0.0,33,0.00,,,0.00,0.0,WeatherDisplay:10.37,2013-03-10 02:24:00,
2013-03-09 18:26:00,48.3,20.5,30.35,North,360,0.0,0.0,33,0.00,,,0.00,0.0,WeatherDisplay:10.37,2013-03-10 02:26:00,
2013-03-09 18:29:00,48.1,20.3,30.35,North,360,0.0,0.0,33,0.00,,,0.00,0.0,WeatherDisplay:10.37,2013-03-10 02:29:00,
2013-03-09 18:30:00,48.0,20.2,30.35,North,360,1.2,0.0,33,0.00,,,0.00,0.0,WeatherDisplay:10.37,2013-03-10 02:30:00,
2013-03-09 18:31:00,48.0,20.9,30.35,North,360,0.0,0.0,34,0.00,,,0.00,0.0,WeatherDisplay:10.37,2013-03-10 02:31:00,
2013-03-09 18:32:00,48.0,20.9,30.35,North,360,0.0,0.0,34,0.00,,,0.00,0.0,WeatherDisplay:10.37,2013-03-10 02:32:00,
2013-03-09 18:34:00,47.9,20.8,30.35,North,360,0.0,0.0,34,0.00,,,0.00,0.0,WeatherDisplay:10.37,2013-03-10 02:34:00,
2013-03-09 18:35:00,47.9,20.8,30.35,North,360,0.0,0.0,34,0.00,,,0.00,0.0,WeatherDisplay:10.37,2013-03-10 02:35:00,
2013-03-09 18:36:00,47.8,20.8,30.35,North,360,0.0,0.0,34,0.00,,,0.00,0.0,WeatherDisplay:10.37,2013-03-10 02:36:00,
2013-03-09 18:37:00,47.8,20.8,30.35,North,360,0.0,0.1,34,0.00,,,0.00,0.0,WeatherDisplay:10.37,2013-03-10 02:37:00,
2013-03-09 18:39:00,47.7,21.3,30.35,North,360,0.0,0.0,35,0.00,,,0.00,0.0,WeatherDisplay:10.37,2013-03-10 02:39:00,
2013-03-09 18:40:00,47.6,21.3,30.35,North,360,0.0,0.0,35,0.00,,,0.00,0.0,WeatherDisplay:10.37,2013-03-10 02:40:00,
2013-03-09 18:41:00,47.6,21.3,30.35,North,360,1.2,1.2,35,0.00,,,0.00,0.0,WeatherDisplay:10.37,2013-03-10 02:41:00,
2013-03-09 18:42:00,47.7,21.3,30.35,North,360,1.2,1.2,35,0.00,,,0.00,0.0,WeatherDisplay:10.37,2013-03-10 02:42:00,
2013-03-09 18:44:00,47.7,21.3,30.36,North,360,1.0,0.0,35,0.00,,,0.00,0.0,WeatherDisplay:10.37,2013-03-10 02:44:00,
2013-03-09 18:45:00,47.7,21.3,30.36,North,360,1.0,1.0,35,0.00,,,0.00,0.0,WeatherDisplay:10.37,2013-03-10 02:45:00,
2013-03-09 18:46:00,47.6,21.9,30.36,North,360,2.3,2.3,36,0.00,,,0.00,0.0,WeatherDisplay:10.37,2013-03-10 02:46:00,
2013-03-09 18:47:00,47.6,21.3,30.36,North,360,1.2,1.2,35,0.00,,,0.00,0.0,WeatherDisplay:10.37,2013-03-10 02:47:00,
2013-03-09 18:49:00,47.5,21.2,30.36,North,360,1.2,1.2,35,0.00,,,0.00,0.0,WeatherDisplay:10.37,2013-03-10 02:49:00,
2013-03-09 18:50:00,47.5,21.2,30.36,North,360,1.2,0.0,35,0.00,,,0.00,0.0,WeatherDisplay:10.37,2013-03-10 02:50:00,
2013-03-09 18:51:00,47.4,21.1,30.36,North,360,1.2,0.0,35,0.00,,,0.00,0.0,WeatherDisplay:10.37,2013-03-10 02:51:00,
2013-03-09 18:52:00,47.4,21.1,30.36,North,360,0.0,0.0,35,0.00,,,0.00,0.0,WeatherDisplay:10.37,2013-03-10 02:52:00,
2013-03-09 18:54:00,47.1,21.5,30.36,North,360,0.0,0.0,36,0.00,,,0.00,0.0,WeatherDisplay:10.37,2013-03-10 02:54:00,
2013-03-09 18:55:00,47.0,21.4,30.36,North,360,0.0,0.0,36,0.00,,,0.00,0.0,WeatherDisplay:10.37,2013-03-10 02:55:00,
2013-03-09 18:56:00,47.0,22.0,30.36,North,360,0.0,0.0,37,0.00,,,0.00,0.0,WeatherDisplay:10.37,2013-03-10 02:56:00,
2013-03-09 18:58:00,46.8,21.9,30.36,North,360,0.0,0.0,37,0.00,,,0.00,0.0,WeatherDisplay:10.37,2013-03-10 02:58:00,
2013-03-09 19:00:00,46.7,21.8,30.36,North,360,0.0,0.0,37,0.00,,,0.00,0.0,WeatherDisplay:10.37,2013-03-10 03:00:00,
2013-03-09 19:01:00,46.6,21.7,30.36,North,360,0.0,0.0,37,0.00,,,0.00,0.0,WeatherDisplay:10.37,2013-03-10 03:01:00,
2013-03-09 19:03:00,46.4,21.5,30.36,North,360,0.0,0.0,37,0.00,,,0.00,0.0,WeatherDisplay:10.37,2013-03-10 03:03:00,
2013-03-09 19:05:00,46.1,21.2,30.36,North,360,1.2,0.0,37,0.00,,,0.00,0.0,WeatherDisplay:10.37,2013-03-10 03:05:00,
2013-03-09 19:06:00,46.0,21.1,30.36,North,360,1.2,0.0,37,0.00,,,0.00,0.0,WeatherDisplay:10.37,2013-03-10 03:06:00,
2013-03-09 19:08:00,45.8,21.0,30.36,North,360,0.0,0.0,37,0.00,,,0.00,0.0,WeatherDisplay:10.37,2013-03-10 03:08:00,
2013-03-09 19:10:00,45.7,20.9,30.37,North,360,0.0,0.0,37,0.00,,,0.00,0.0,WeatherDisplay:10.37,2013-03-10 03:10:00,
2013-03-09 19:11:00,45.6,20.8,30.37,North,360,0.0,0.0,37,0.00,,,0.00,0.0,WeatherDisplay:10.37,2013-03-10 03:11:00,
2013-03-09 19:13:00,45.4,20.6,30.37,North,360,0.0,0.0,37,0.00,,,0.00,0.0,WeatherDisplay:10.37,2013-03-10 03:13:00,
2013-03-09 19:15:00,45.2,20.4,30.37,North,360,0.0,0.0,37,0.00,,,0.00,0.0,WeatherDisplay:10.37,2013-03-10 03:15:00,
2013-03-09 19:17:00,45.0,20.9,30.37,North,360,0.0,0.0,38,0.00,,,0.00,0.0,WeatherDisplay:10.37,2013-03-10 03:17:00,
2013-03-09 19:19:00,44.8,20.7,30.37,North,360,0.0,0.0,38,0.00,,,0.00,0.0,WeatherDisplay:10.37,2013-03-10 03:19:00,
2013-03-09 19:20:00,44.6,21.1,30.37,North,360,1.2,0.0,39,0.00,,,0.00,0.0,WeatherDisplay:10.37,2013-03-10 03:20:00,
2013-03-09 19:22:00,44.4,21.0,30.37,North,360,0.0,0.0,39,0.00,,,0.00,0.0,WeatherDisplay:10.37,2013-03-10 03:22:00,
2013-03-09 19:24:00,44.2,20.8,30.37,North,360,0.0,0.0,39,0.00,,,0.00,0.0,WeatherDisplay:10.37,2013-03-10 03:24:00,
2013-03-09 19:26:00,43.9,21.1,30.37,North,360,0.0,0.0,40,0.00,,,0.00,0.0,WeatherDisplay:10.37,2013-03-10 03:26:00,
2013-03-09 19:27:00,43.7,20.9,30.37,North,360,0.0,0.0,40,0.00,,,0.00,0.0,WeatherDisplay:10.37,2013-03-10 03:27:00,
2013-03-09 19:28:00,43.7,20.9,30.37,North,360,0.0,0.0,40,0.00,,,0.00,0.0,WeatherDisplay:10.37,2013-03-10 03:28:00,
2013-03-09 19:29:00,43.6,20.8,30.37,North,360,0.0,0.0,40,0.00,,,0.00,0.0,WeatherDisplay:10.37,2013-03-10 03:29:00,
2013-03-09 19:31:00,43.3,21.1,30.37,North,360,1.2,1.2,41,0.00,,,0.00,0.0,WeatherDisplay:10.37,2013-03-10 03:31:00,
2013-03-09 19:32:00,43.2,21.1,30.37,North,360,1.2,1.2,41,0.00,,,0.00,0.0,WeatherDisplay:10.37,2013-03-10 03:32:00,
2013-03-09 19:33:00,43.1,21.0,30.37,North,360,1.2,0.0,41,0.00,,,0.00,0.0,WeatherDisplay:10.37,2013-03-10 03:33:00,
2013-03-09 19:34:00,43.0,20.9,30.37,North,360,0.0,0.0,41,0.00,,,0.00,0.0,WeatherDisplay:10.37,2013-03-10 03:34:00,
2013-03-09 19:36:00,42.6,21.1,30.37,North,360,0.0,0.0,42,0.00,,,0.00,0.0,WeatherDisplay:10.37,2013-03-10 03:36:00,
2013-03-09 19:37:00,42.5,21.0,30.37,North,360,0.0,0.0,42,0.00,,,0.00,0.0,WeatherDisplay:10.37,2013-03-10 03:37:00,
2013-03-09 19:38:00,42.4,20.9,30.37,North,360,0.0,0.0,42,0.00,,,0.00,0.0,WeatherDisplay:10.37,2013-03-10 03:38:00,
2013-03-09 19:39:00,42.4,20.9,30.37,North,360,0.0,0.0,42,0.00,,,0.00,0.0,WeatherDisplay:10.37,2013-03-10 03:39:00,
2013-03-09 19:41:00,42.1,21.2,30.37,North,360,0.0,0.0,43,0.00,,,0.00,0.0,WeatherDisplay:10.37,2013-03-10 03:41:00,
2013-03-09 19:42:00,42.1,21.2,30.37,North,360,0.0,0.0,43,0.00,,,0.00,0.0,WeatherDisplay:10.37,2013-03-10 03:42:00,
2013-03-09 19:44:00,42.0,21.1,30.37,North,360,0.0,0.0,43,0.00,,,0.00,0.0,WeatherDisplay:10.37,2013-03-10 03:44:00,
2013-03-09 19:46:00,41.9,21.0,30.37,North,360,0.0,0.0,43,0.00,,,0.00,0.0,WeatherDisplay:10.37,2013-03-10 03:46:00,
2013-03-09 19:47:00,41.8,20.9,30.37,North,360,0.0,0.0,43,0.00,,,0.00,0.0,WeatherDisplay:10.37,2013-03-10 03:47:00,
2013-03-09 19:49:00,41.8,21.5,30.37,North,360,0.0,0.0,44,0.00,,,0.00,0.0,WeatherDisplay:10.37,2013-03-10 03:49:00,
2013-03-09 19:52:00,41.5,21.2,30.37,North,360,0.0,0.0,44,0.00,,,0.00,0.0,WeatherDisplay:10.37,2013-03-10 03:52:00,
2013-03-09 19:53:00,41.5,21.2,30.37,North,360,0.0,0.0,44,0.00,,,0.00,0.0,WeatherDisplay:10.37,2013-03-10 03:53:00,
2013-03-09 19:54:00,41.4,21.1,30.37,North,360,0.0,0.0,44,0.00,,,0.00,0.0,WeatherDisplay:10.37,2013-03-10 03:54:00,
2013-03-09 19:57:00,41.1,21.3,30.37,North,360,0.0,0.0,45,0.00,,,0.00,0.0,WeatherDisplay:10.37,2013-03-10 03:57:00,
2013-03-09 19:58:00,41.0,21.3,30.37,North,360,0.0,0.0,45,0.00,,,0.00,0.0,WeatherDisplay:10.37,2013-03-10 03:58:00,
2013-03-09 19:59:00,40.9,21.2,30.37,North,360,0.0,0.0,45,0.00,,,0.00,0.0,WeatherDisplay:10.37,2013-03-10 03:59:00,
2013-03-09 20:02:00,40.6,20.9,30.37,North,360,0.0,0.0,45,0.00,,,0.00,0.0,WeatherDisplay:10.37,2013-03-10 04:02:00,
2013-03-09 20:03:00,40.5,21.3,30.37,North,360,0.0,0.0,46,0.00,,,0.00,0.0,WeatherDisplay:10.37,2013-03-10 04:03:00,
2013-03-09 20:04:00,40.4,21.2,30.37,North,360,0.0,0.0,46,0.00,,,0.00,0.0,WeatherDisplay:10.37,2013-03-10 04:04:00,
2013-03-09 20:05:00,40.4,21.2,30.36,North,360,0.0,0.0,46,0.00,,,0.00,0.0,WeatherDisplay:10.37,2013-03-10 04:05:00,
2013-03-09 20:07:00,40.2,21.6,30.37,North,360,0.0,0.0,47,0.00,,,0.00,0.0,WeatherDisplay:10.37,2013-03-10 04:07:00,
2013-03-09 20:08:00,40.2,21.6,30.37,North,360,0.0,0.0,47,0.00,,,0.00,0.0,WeatherDisplay:10.37,2013-03-10 04:08:00,
2013-03-09 20:09:00,40.2,22.1,30.37,North,360,0.0,0.0,48,0.00,,,0.00,0.0,WeatherDisplay:10.37,2013-03-10 04:09:00,
2013-03-09 20:10:00,40.1,22.0,30.36,North,360,1.0,0.0,48,0.00,,,0.00,0.0,WeatherDisplay:10.37,2013-03-10 04:10:00,
2013-03-09 20:12:00,40.0,21.4,30.37,North,360,0.0,0.0,47,0.00,,,0.00,0.0,WeatherDisplay:10.37,2013-03-10 04:12:00,
2013-03-09 20:13:00,39.9,21.3,30.36,North,360,0.0,0.0,47,0.00,,,0.00,0.0,WeatherDisplay:10.37,2013-03-10 04:13:00,
2013-03-09 20:14:00,39.8,21.2,30.37,North,360,0.0,0.0,47,0.00,,,0.00,0.0,WeatherDisplay:10.37,2013-03-10 04:14:00,
2013-03-09 20:15:00,39.7,21.1,30.37,North,360,0.0,0.0,47,0.00,,,0.00,0.0,WeatherDisplay:10.37,2013-03-10 04:15:00,
2013-03-09 20:17:00,39.4,21.3,30.37,North,360,0.0,0.0,48,0.00,,,0.00,0.0,WeatherDisplay:10.37,2013-03-10 04:17:00,
2013-03-09 20:18:00,39.1,21.5,30.37,North,360,0.0,0.0,49,0.00,,,0.00,0.0,WeatherDisplay:10.37,2013-03-10 04:18:00,
2013-03-09 20:19:00,39.0,21.4,30.37,North,360,0.0,0.0,49,0.00,,,0.00,0.0,WeatherDisplay:10.37,2013-03-10 04:19:00,
2013-03-09 20:20:00,38.9,21.8,30.37,North,360,0.0,0.0,50,0.00,,,0.00,0.0,WeatherDisplay:10.37,2013-03-10 04:20:00,
2013-03-09 20:22:00,38.7,21.6,30.37,North,360,0.0,0.0,50,0.00,,,0.00,0.0,WeatherDisplay:10.37,2013-03-10 04:22:00,
2013-03-09 20:24:00,38.6,21.5,30.37,North,360,0.0,0.1,50,0.00,,,0.00,0.0,WeatherDisplay:10.37,2013-03-10 04:24:00,
2013-03-09 20:25:00,38.5,21.4,30.37,North,360,0.0,1.0,50,0.00,,,0.00,0.0,WeatherDisplay:10.37,2013-03-10 04:25:00,
2013-03-09 20:27:00,38.4,21.4,30.37,North,360,1.2,1.2,50,0.00,,,0.00,0.0,WeatherDisplay:10.37,2013-03-10 04:27:00,
2013-03-09 20:29:00,38.2,21.2,30.37,North,360,0.0,0.0,50,0.00,,,0.00,0.0,WeatherDisplay:10.37,2013-03-10 04:29:00,
2013-03-09 20:30:00,38.2,21.6,30.37,North,360,0.0,0.0,51,0.00,,,0.00,0.0,WeatherDisplay:10.37,2013-03-10 04:30:00,
2013-03-09 20:32:00,38.0,21.9,30.37,North,360,0.0,0.0,52,0.00,,,0.00,0.0,WeatherDisplay:10.37,2013-03-10 04:32:00,
2013-03-09 20:34:00,38.0,21.9,30.37,North,360,0.0,0.0,52,0.00,,,0.00,0.0,WeatherDisplay:10.37,2013-03-10 04:34:00,
2013-03-09 20:35:00,38.0,21.9,30.37,North,360,0.0,0.0,52,0.00,,,0.00,0.0,WeatherDisplay:10.37,2013-03-10 04:35:00,
2013-03-09 20:38:00,37.9,21.8,30.37,North,360,0.0,0.0,52,0.00,,,0.00,0.0,WeatherDisplay:10.37,2013-03-10 04:38:00,
2013-03-09 20:39:00,37.9,21.8,30.37,North,360,0.0,0.0,52,0.00,,,0.00,0.0,WeatherDisplay:10.37,2013-03-10 04:39:00,
2013-03-09 20:40:00,37.9,21.8,30.37,North,360,1.2,0.0,52,0.00,,,0.00,0.0,WeatherDisplay:10.37,2013-03-10 04:40:00,
2013-03-09 20:43:00,37.7,21.2,30.38,North,360,1.2,1.2,51,0.00,,,0.00,0.0,WeatherDisplay:10.37,2013-03-10 04:43:00,
2013-03-09 20:44:00,37.6,21.1,30.38,North,360,1.2,1.2,51,0.00,,,0.00,0.0,WeatherDisplay:10.37,2013-03-10 04:44:00,
2013-03-09 20:45:00,37.5,21.5,30.38,North,360,1.2,0.0,52,0.00,,,0.00,0.0,WeatherDisplay:10.37,2013-03-10 04:45:00,
2013-03-09 20:48:00,37.3,21.3,30.38,North,360,0.0,0.0,52,0.00,,,0.00,0.0,WeatherDisplay:10.37,2013-03-10 04:48:00,
2013-03-09 20:49:00,37.2,21.2,30.38,North,360,1.2,1.2,52,0.00,,,0.00,0.0,WeatherDisplay:10.37,2013-03-10 04:49:00,
2013-03-09 20:50:00,37.1,21.5,30.38,North,360,1.2,1.2,53,0.00,,,0.00,0.0,WeatherDisplay:10.37,2013-03-10 04:50:00,
2013-03-09 20:53:00,36.6,21.1,30.38,NNE,23,1.2,0.0,53,0.00,,,0.00,0.0,WeatherDisplay:10.37,2013-03-10 04:53:00,
2013-03-09 20:55:00,36.5,21.4,30.38,NNE,23,0.0,0.1,54,0.00,,,0.00,0.0,WeatherDisplay:10.37,2013-03-10 04:55:00,
2013-03-09 20:59:00,36.1,21.0,30.38,NNE,23,0.0,0.0,54,0.00,,,0.00,0.0,WeatherDisplay:10.37,2013-03-10 04:59:00,
2013-03-09 21:00:00,36.0,21.4,30.38,NNE,23,0.0,0.0,55,0.00,,,0.00,0.0,WeatherDisplay:10.37,2013-03-10 05:00:00,
2013-03-09 21:01:00,35.9,21.3,30.38,NNE,23,0.0,0.0,55,0.00,CLR,,0.00,0.0,WeatherDisplay:10.37,2013-03-10 05:01:00,
2013-03-09 21:05:00,35.6,21.4,30.38,NNE,23,0.0,0.0,56,0.00,CLR,,0.00,0.0,WeatherDisplay:10.37,2013-03-10 05:05:00,
2013-03-09 21:06:00,35.4,21.2,30.39,NNE,23,1.2,0.0,56,0.00,CLR,,0.00,0.0,WeatherDisplay:10.37,2013-03-10 05:06:00,
2013-03-09 21:10:00,35.1,21.4,30.39,NNE,23,0.0,0.0,57,0.00,CLR,,0.00,0.0,WeatherDisplay:10.37,2013-03-10 05:10:00,
2013-03-09 21:11:00,35.1,21.4,30.39,NNE,23,0.0,0.0,57,0.00,CLR,,0.00,0.0,WeatherDisplay:10.37,2013-03-10 05:11:00,
2013-03-09 21:12:00,35.0,21.3,30.39,NNE,23,0.0,0.0,57,0.00,CLR,,0.00,0.0,WeatherDisplay:10.37,2013-03-10 05:12:00,
2013-03-09 21:15:00,34.9,21.2,30.39,NNE,23,0.0,0.0,57,0.00,CLR,,0.00,0.0,WeatherDisplay:10.37,2013-03-10 05:15:00,
2013-03-09 21:16:00,34.9,21.2,30.39,NNE,23,0.0,0.0,57,0.00,CLR,,0.00,0.0,WeatherDisplay:10.37,2013-03-10 05:16:00,
2013-03-09 21:17:00,34.9,21.2,30.39,NNE,23,0.0,0.0,57,0.00,CLR,,0.00,0.0,WeatherDisplay:10.37,2013-03-10 05:17:00,
2013-03-09 21:20:00,34.7,21.0,30.39,NNE,23,0.0,0.0,57,0.00,CLR,,0.00,0.0,WeatherDisplay:10.37,2013-03-10 05:20:00,
2013-03-09 21:21:00,34.7,21.4,30.39,NNE,23,0.0,0.0,58,0.00,CLR,,0.00,0.0,WeatherDisplay:10.37,2013-03-10 05:21:00,
2013-03-09 21:22:00,34.7,21.4,30.39,NNE,23,0.0,0.0,58,0.00,CLR,,0.00,0.0,WeatherDisplay:10.37,2013-03-10 05:22:00,
2013-03-09 21:26:00,34.5,21.2,30.39,NNE,23,1.2,1.2,58,0.00,CLR,,0.00,0.0,WeatherDisplay:10.37,2013-03-10 05:26:00,
2013-03-09 21:27:00,34.4,21.1,30.39,NNE,23,1.2,1.2,58,0.00,CLR,,0.00,0.0,WeatherDisplay:10.37,2013-03-10 05:27:00,
2013-03-09 21:31:00,34.0,20.8,30.39,NNE,23,1.2,1.2,58,0.00,CLR,,0.00,0.0,WeatherDisplay:10.37,2013-03-10 05:31:00,
2013-03-09 21:32:00,33.9,21.1,30.40,NNE,24,2.3,2.3,59,0.00,CLR,,0.00,0.0,WeatherDisplay:10.37,2013-03-10 05:32:00,
2013-03-09 21:36:00,33.5,20.7,30.40,NNE,24,2.3,2.3,59,0.00,CLR,,0.00,0.0,WeatherDisplay:10.37,2013-03-10 05:36:00,
2013-03-09 21:37:00,33.5,20.7,30.40,NNE,24,2.3,2.3,59,0.00,CLR,,0.00,0.0,WeatherDisplay:10.37,2013-03-10 05:37:00,
2013-03-09 21:41:00,33.3,21.3,30.40,NNE,24,0.0,0.0,61,0.00,CLR,,0.00,0.0,WeatherDisplay:10.37,2013-03-10 05:41:00,
2013-03-09 21:42:00,33.2,21.2,30.40,NNE,24,0.0,0.1,61,0.00,CLR,,0.00,0.0,WeatherDisplay:10.37,2013-03-10 05:42:00,
2013-03-09 21:43:00,33.2,21.2,30.40,NNE,24,1.2,0.0,61,0.00,CLR,,0.00,0.0,WeatherDisplay:10.37,2013-03-10 05:43:00,
2013-03-09 21:46:00,33.1,21.1,30.40,NNE,24,1.2,0.0,61,0.00,CLR,,0.00,0.0,WeatherDisplay:10.37,2013-03-10 05:46:00,
2013-03-09 21:47:00,33.1,21.1,30.40,NNE,24,1.2,0.0,61,0.00,CLR,,0.00,0.0,WeatherDisplay:10.37,2013-03-10 05:47:00,
2013-03-09 21:48:00,33.0,21.0,30.40,NNE,24,0.0,0.0,61,0.00,CLR,,0.00,0.0,WeatherDisplay:10.37,2013-03-10 05:48:00,
2013-03-09 21:51:00,32.8,20.8,30.40,NNE,24,1.2,0.0,61,0.00,CLR,,0.00,0.0,WeatherDisplay:10.37,2013-03-10 05:51:00,
2013-03-09 21:52:00,32.8,20.8,30.40,NNE,24,1.2,1.2,61,0.00,CLR,,0.00,0.0,WeatherDisplay:10.37,2013-03-10 05:52:00,
2013-03-09 21:53:00,32.6,21.0,30.40,NNE,24,1.2,1.2,62,0.00,CLR,,0.00,0.0,WeatherDisplay:10.37,2013-03-10 05:53:00,
2013-03-09 21:56:00,32.5,20.9,30.41,NNE,24,0.0,0.0,62,0.00,CLR,,0.00,0.0,WeatherDisplay:10.37,2013-03-10 05:56:00,
2013-03-09 21:57:00,32.5,21.3,30.41,NNE,24,0.0,0.0,63,0.00,CLR,,0.00,0.0,WeatherDisplay:10.37,2013-03-10 05:57:00,
2013-03-09 21:58:00,32.4,21.2,30.41,NNE,24,0.0,0.0,63,0.00,CLR,,0.00,0.0,WeatherDisplay:10.37,2013-03-10 05:58:00,
2013-03-09 22:02:00,32.4,21.6,30.41,NNE,24,1.2,0.0,64,0.00,CLR,,0.00,0.0,WeatherDisplay:10.37,2013-03-10 06:02:00,
2013-03-09 22:03:00,32.4,21.6,30.41,NNE,24,1.2,1.2,64,0.00,CLR,,0.00,0.0,WeatherDisplay:10.37,2013-03-10 06:03:00,
2013-03-09 22:07:00,32.4,21.6,30.41,NNE,24,0.0,0.0,64,0.00,CLR,,0.00,0.0,WeatherDisplay:10.37,2013-03-10 06:07:00,
2013-03-09 22:08:00,32.5,21.7,30.41,NNE,24,0.0,0.0,64,0.00,CLR,,0.00,0.0,WeatherDisplay:10.37,2013-03-10 06:08:00,
2013-03-09 22:09:00,32.5,21.7,30.41,NNE,26,0.0,0.2,64,0.00,CLR,,0.00,0.0,WeatherDisplay:10.37,2013-03-10 06:09:00,
2013-03-09 22:12:00,32.6,21.8,30.40,NNE,26,0.0,0.0,64,0.00,CLR,,0.00,0.0,WeatherDisplay:10.37,2013-03-10 06:12:00,
2013-03-09 22:13:00,32.6,21.4,30.40,NNE,26,0.0,0.1,63,0.00,CLR,,0.00,0.0,WeatherDisplay:10.37,2013-03-10 06:13:00,
2013-03-09 22:14:00,32.6,21.4,30.41,NNE,26,1.2,0.0,63,0.00,CLR,,0.00,0.0,WeatherDisplay:10.37,2013-03-10 06:14:00,
2013-03-09 22:17:00,32.6,21.4,30.41,NNE,27,1.2,1.2,63,0.00,CLR,,0.00,0.0,WeatherDisplay:10.37,2013-03-10 06:17:00,
2013-03-09 22:18:00,32.5,21.3,30.41,NNE,29,1.2,1.2,63,0.00,CLR,,0.00,0.0,WeatherDisplay:10.37,2013-03-10 06:18:00,
2013-03-09 22:19:00,32.5,21.3,30.41,NNE,29,1.2,0.0,63,0.00,CLR,,0.00,0.0,WeatherDisplay:10.37,2013-03-10 06:19:00,
2013-03-09 22:22:00,32.3,21.1,30.41,NNE,30,3.5,3.5,63,0.00,CLR,,0.00,0.0,WeatherDisplay:10.37,2013-03-10 06:22:00,
2013-03-09 22:24:00,32.1,20.9,30.41,NNE,30,1.2,1.2,63,0.00,CLR,,0.00,0.0,WeatherDisplay:10.37,2013-03-10 06:24:00,
2013-03-09 22:25:00,32.1,20.9,30.41,NNE,30,1.2,1.2,63,0.00,CLR,,0.00,0.0,WeatherDisplay:10.37,2013-03-10 06:25:00,
2013-03-09 22:27:00,31.9,20.7,30.41,NNE,31,2.3,2.3,63,0.00,CLR,,0.00,0.0,WeatherDisplay:10.37,2013-03-10 06:27:00,
2013-03-09 22:28:00,31.9,20.7,30.41,NNE,32,2.3,2.3,63,0.00,CLR,,0.00,0.0,WeatherDisplay:10.37,2013-03-10 06:28:00,
2013-03-09 22:29:00,31.7,20.9,30.41,NNE,33,1.2,1.2,64,0.00,CLR,,0.00,0.0,WeatherDisplay:10.37,2013-03-10 06:29:00,
2013-03-09 22:30:00,31.7,20.9,30.41,NE,34,1.2,1.2,64,0.00,CLR,,0.00,0.0,WeatherDisplay:10.37,2013-03-10 06:30:00,
2013-03-09 22:32:00,31.4,20.6,30.41,NE,34,1.2,0.0,64,0.00,CLR,,0.00,0.0,WeatherDisplay:10.37,2013-03-10 06:32:00,
2013-03-09 22:33:00,31.4,20.6,30.41,NE,34,1.2,0.0,64,0.00,CLR,,0.00,0.0,WeatherDisplay:10.37,2013-03-10 06:33:00,
2013-03-09 22:34:00,31.3,20.5,30.41,NE,36,2.3,2.3,64,0.00,CLR,,0.00,0.0,WeatherDisplay:10.37,2013-03-10 06:34:00,
2013-03-09 22:35:00,31.3,20.5,30.41,NE,38,2.3,2.3,64,0.00,CLR,,0.00,0.0,WeatherDisplay:10.37,2013-03-10 06:35:00,
2013-03-09 22:37:00,31.2,20.8,30.41,ESE,122,2.3,2.3,65,0.00,CLR,,0.00,0.0,WeatherDisplay:10.37,2013-03-10 06:37:00,
2013-03-09 22:38:00,31.2,20.4,30.41,ESE,113,3.0,3.0,64,0.00,CLR,,0.00,0.0,WeatherDisplay:10.37,2013-03-10 06:38:00,
2013-03-09 22:40:00,31.1,20.7,30.41,SE,124,2.3,2.3,65,0.00,CLR,,0.00,0.0,WeatherDisplay:10.37,2013-03-10 06:40:00,
2013-03-09 22:41:00,31.0,20.6,30.41,SE,128,2.3,2.3,65,0.00,CLR,,0.00,0.0,WeatherDisplay:10.37,2013-03-10 06:41:00,
2013-03-09 22:43:00,31.0,20.6,30.40,SE,126,1.2,0.0,65,0.00,CLR,,0.00,0.0,WeatherDisplay:10.37,2013-03-10 06:43:00,
2013-03-09 22:45:00,30.9,20.5,30.40,SE,128,1.2,1.2,65,0.00,CLR,,0.00,0.0,WeatherDisplay:10.37,2013-03-10 06:45:00,
2013-03-09 22:46:00,30.8,20.0,30.40,SE,130,2.3,2.3,64,0.00,CLR,,0.00,0.0,WeatherDisplay:10.37,2013-03-10 06:46:00,
2013-03-09 22:48:00,30.7,20.0,30.41,SSE,155,2.3,2.3,64,0.00,CLR,,0.00,0.0,WeatherDisplay:10.37,2013-03-10 06:48:00,
2013-03-09 22:50:00,30.6,20.2,30.41,SSE,155,1.2,0.0,65,0.00,CLR,,0.00,0.0,WeatherDisplay:10.37,2013-03-10 06:50:00,
2013-03-09 22:52:00,30.5,20.1,30.41,SSE,155,0.0,0.0,65,0.00,CLR,,0.00,0.0,WeatherDisplay:10.37,2013-03-10 06:52:00,
2013-03-09 22:53:00,30.5,20.1,30.41,SSE,155,0.0,0.0,65,0.00,CLR,,0.00,0.0,WeatherDisplay:10.37,2013-03-10 06:53:00,
2013-03-09 22:55:00,30.4,20.0,30.41,SSE,155,1.2,0.0,65,0.00,CLR,,0.00,0.0,WeatherDisplay:10.37,2013-03-10 06:55:00,
2013-03-09 22:57:00,30.4,20.4,30.41,SSE,155,1.2,1.2,66,0.00,CLR,,0.00,0.0,WeatherDisplay:10.37,2013-03-10 06:57:00,
2013-03-09 22:58:00,30.4,20.4,30.41,SSE,155,1.2,0.0,66,0.00,CLR,,0.00,0.0,WeatherDisplay:10.37,2013-03-10 06:58:00,
2013-03-09 23:00:00,30.4,20.4,30.41,SSE,155,1.2,1.2,66,0.00,CLR,,0.00,0.0,WeatherDisplay:10.37,2013-03-10 07:00:00,
2013-03-09 23:02:00,30.5,20.5,30.41,SSE,155,2.3,2.3,66,0.00,CLR,,0.00,0.0,WeatherDisplay:10.37,2013-03-10 07:02:00,
2013-03-09 23:03:00,30.6,20.6,30.41,SSE,155,0.0,0.0,66,0.00,CLR,,0.00,0.0,WeatherDisplay:10.37,2013-03-10 07:03:00,
2013-03-09 23:04:00,30.6,20.6,30.41,SSE,156,1.0,1.0,66,0.00,CLR,,0.00,0.0,WeatherDisplay:10.37,2013-03-10 07:04:00,
2013-03-09 23:06:00,30.6,20.6,30.41,SSE,155,0.0,0.0,66,0.00,CLR,,0.00,0.0,WeatherDisplay:10.37,2013-03-10 07:06:00,
2013-03-09 23:07:00,30.6,20.6,30.41,SSE,155,1.2,1.2,66,0.00,CLR,,0.00,0.0,WeatherDisplay:10.37,2013-03-10 07:07:00,
2013-03-09 23:08:00,30.6,20.6,30.41,SSE,155,0.0,0.0,66,0.00,CLR,,0.00,0.0,WeatherDisplay:10.37,2013-03-10 07:08:00,
2013-03-09 23:09:00,30.6,20.6,30.41,SSE,155,0.0,0.0,66,0.00,CLR,,0.00,0.0,WeatherDisplay:10.37,2013-03-10 07:09:00,
2013-03-09 23:11:00,30.5,20.1,30.41,SSE,155,1.2,1.2,65,0.00,CLR,,0.00,0.0,WeatherDisplay:10.37,2013-03-10 07:11:00,
2013-03-09 23:12:00,30.5,20.1,30.41,SSE,155,1.2,1.2,65,0.00,CLR,,0.00,0.0,WeatherDisplay:10.37,2013-03-10 07:12:00,
2013-03-09 23:14:00,30.4,20.0,30.41,SE,144,3.0,3.0,65,0.00,CLR,,0.00,0.0,WeatherDisplay:10.37,2013-03-10 07:14:00,
2013-03-09 23:15:00,30.3,19.9,30.41,SE,140,3.5,3.5,65,0.00,CLR,,0.00,0.0,WeatherDisplay:10.37,2013-03-10 07:15:00,
2013-03-09 23:16:00,30.3,19.9,30.41,SE,142,2.3,2.3,65,0.00,CLR,,0.00,0.0,WeatherDisplay:10.37,2013-03-10 07:16:00,
2013-03-09 23:17:00,30.2,19.8,30.41,SE,142,1.2,1.2,65,0.00,CLR,,0.00,0.0,WeatherDisplay:10.37,2013-03-10 07:17:00,
2013-03-09 23:19:00,30.1,19.7,30.41,SE,142,1.2,1.2,65,0.00,CLR,,0.00,0.0,WeatherDisplay:10.37,2013-03-10 07:19:00,
2013-03-09 23:20:00,30.0,19.7,30.41,SE,142,1.2,1.2,65,0.00,CLR,,0.00,0.0,WeatherDisplay:10.37,2013-03-10 07:20:00,
2013-03-09 23:21:00,30.0,20.0,30.41,SE,142,1.2,1.2,66,0.00,CLR,,0.00,0.0,WeatherDisplay:10.37,2013-03-10 07:21:00,
2013-03-09 23:22:00,30.0,20.0,30.41,SE,142,2.0,2.0,66,0.00,CLR,,0.00,0.0,WeatherDisplay:10.37,2013-03-10 07:22:00,
2013-03-09 23:24:00,29.9,19.9,30.41,SSE,155,2.3,2.3,66,0.00,CLR,,0.00,0.0,WeatherDisplay:10.37,2013-03-10 07:24:00,
2013-03-09 23:25:00,29.9,19.9,30.41,SSE,147,0.0,3.0,66,0.00,CLR,,0.00,0.0,WeatherDisplay:10.37,2013-03-10 07:25:00,
2013-03-09 23:26:00,29.9,19.9,30.41,SSE,158,2.3,2.3,66,0.00,CLR,,0.00,0.0,WeatherDisplay:10.37,2013-03-10 07:26:00,
2013-03-09 23:27:00,29.9,19.9,30.41,SSE,166,3.5,3.5,66,0.00,CLR,,0.00,0.0,WeatherDisplay:10.37,2013-03-10 07:27:00,
2013-03-09 23:29:00,29.9,19.9,30.41,SSE,166,2.3,2.3,66,0.00,CLR,,0.00,0.0,WeatherDisplay:10.37,2013-03-10 07:29:00,
2013-03-09 23:31:00,29.9,19.9,30.41,SSE,166,1.2,1.2,66,0.00,CLR,,0.00,0.0,WeatherDisplay:10.37,2013-03-10 07:31:00,
2013-03-09 23:32:00,29.9,19.9,30.41,SSE,166,1.2,1.2,66,0.00,CLR,,0.00,0.0,WeatherDisplay:10.37,2013-03-10 07:32:00,
2013-03-09 23:34:00,29.7,19.4,30.41,SSE,153,1.0,0.0,65,0.00,CLR,,0.00,0.0,WeatherDisplay:10.37,2013-03-10 07:34:00,
2013-03-09 23:36:00,29.6,19.6,30.41,SSE,155,1.2,1.2,66,0.00,CLR,,0.00,0.0,WeatherDisplay:10.37,2013-03-10 07:36:00,
2013-03-09 23:37:00,29.6,19.3,30.41,SSE,155,1.2,1.2,65,0.00,CLR,,0.00,0.0,WeatherDisplay:10.37,2013-03-10 07:37:00,
2013-03-09 23:38:00,29.5,19.5,30.41,SSE,155,2.3,2.3,66,0.00,CLR,,0.00,0.0,WeatherDisplay:10.37,2013-03-10 07:38:00,
2013-03-09 23:39:00,29.4,19.4,30.41,SSE,151,1.2,1.2,66,0.00,CLR,,0.00,0.0,WeatherDisplay:10.37,2013-03-10 07:39:00,
2013-03-09 23:42:00,29.3,19.3,30.41,SSE,150,2.3,2.3,66,0.00,CLR,,0.00,0.0,WeatherDisplay:10.37,2013-03-10 07:42:00,
2013-03-09 23:43:00,29.2,19.2,30.41,SSE,150,1.2,1.2,66,0.00,CLR,,0.00,0.0,WeatherDisplay:10.37,2013-03-10 07:43:00,
2013-03-09 23:44:00,29.0,19.1,30.41,SSE,150,0.0,0.0,66,0.00,CLR,,0.00,0.0,WeatherDisplay:10.37,2013-03-10 07:44:00,
2013-03-09 23:47:00,28.9,19.3,30.41,SSE,151,1.2,1.2,67,0.00,CLR,,0.00,0.0,WeatherDisplay:10.37,2013-03-10 07:47:00,
2013-03-09 23:48:00,28.9,19.3,30.41,SSE,151,1.2,1.2,67,0.00,CLR,,0.00,0.0,WeatherDisplay:10.37,2013-03-10 07:48:00,
2013-03-09 23:50:00,28.8,19.2,30.41,SSE,151,2.3,2.3,67,0.00,CLR,,0.00,0.0,WeatherDisplay:10.37,2013-03-10 07:50:00,
2013-03-09 23:52:00,28.8,19.2,30.41,SSE,151,1.2,0.0,67,0.00,CLR,,0.00,0.0,WeatherDisplay:10.37,2013-03-10 07:52:00,
2013-03-09 23:53:00,28.7,19.1,30.41,SSE,151,0.0,0.0,67,0.00,CLR,,0.00,0.0,WeatherDisplay:10.37,2013-03-10 07:53:00,
2013-03-09 23:55:00,28.7,19.1,30.41,SSE,151,1.2,1.2,67,0.00,CLR,,0.00,0.0,WeatherDisplay:10.37,2013-03-10 07:55:00,
2013-03-09 23:57:00,28.7,19.5,30.41,SSE,158,1.2,1.2,68,0.00,CLR,,0.00,0.0,WeatherDisplay:10.37,2013-03-10 07:57:00,
2013-03-09 23:58:00,28.8,19.6,30.41,SSE,158,2.3,2.3,68,0.00,CLR,,0.00,0.0,WeatherDisplay:10.37,2013-03-10 07:58:00,